Observation data for Sweetwater on 04/22/2019      Previous  Date  Next       Current Mesonet Observations  Soil Data  Daily Summary Page  Observations in Plain Language
KSW1 220500Z 18014KT 22/14 A2993 RMK A01 T02160143  RH  063%=      5-min Rain = 0
KSW1 220501Z 17018G23KT 22/14 A2993 RMK A01 T02150143  RH  063%=      5-min Rain = 0
KSW1 220502Z 17016KT 22/14 A2993 RMK A01 T02160143  RH  063%=      5-min Rain = 0
KSW1 220503Z 17016G22KT 22/14 A2993 RMK A01 T02160143  RH  063%=      5-min Rain = 0
KSW1 220504Z 17018KT 22/14 A2993 RMK A01 T02160143  RH  063%=      5-min Rain = 0
KSW1 220505Z 17017G22KT 22/14 A2993 RMK A01 T02160143  RH  063%=      5-min Rain = 0
KSW1 220506Z 17015KT 22/14 A2993 RMK A01 T02170143  RH  063%=      5-min Rain = 0
KSW1 220507Z 17014KT 22/14 A2993 RMK A01 T02170144  RH  063%=      5-min Rain = 0
KSW1 220508Z 18018KT 22/14 A2993 RMK A01 T02160144  RH  063%=      5-min Rain = 0
KSW1 220509Z 17016KT 22/14 A2993 RMK A01 T02160144  RH  063%=      5-min Rain = 0
KSW1 220510Z 17015KT 22/14 A2994 RMK A01 T02160144  RH  064%=      5-min Rain = 0
KSW1 220511Z 17017KT 22/14 A2993 RMK A01 T02150144  RH  064%=      5-min Rain = 0
KSW1 220512Z 17013KT 21/14 A2993 RMK A01 T02140144  RH  064%=      5-min Rain = 0
KSW1 220513Z 17012KT 21/14 A2993 RMK A01 T02140144  RH  064%=      5-min Rain = 0
KSW1 220514Z 17015KT 21/15 A2993 RMK A01 T02130145  RH  065%=      5-min Rain = 0
KSW1 220515Z 17015KT 21/14 A2993 RMK A01 T02130144  RH  065%=      5-min Rain = 0
KSW1 220516Z 17013KT 21/14 A2993 RMK A01 T02140144  RH  065%=      5-min Rain = 0
KSW1 220517Z 17015KT 21/15 A2993 RMK A01 T02130145  RH  065%=      5-min Rain = 0
KSW1 220518Z 17015KT 21/15 A2993 RMK A01 T02130145  RH  065%=      5-min Rain = 0
KSW1 220519Z 17017KT 21/15 A2993 RMK A01 T02130145  RH  065%=      5-min Rain = 0
KSW1 220520Z 17016KT 21/15 A2993 RMK A01 T02130145  RH  065%=      5-min Rain = 0
KSW1 220521Z 17014KT 21/15 A2993 RMK A01 T02130145  RH  065%=      5-min Rain = 0
KSW1 220522Z 17017KT 21/15 A2993 RMK A01 T02120145  RH  065%=      5-min Rain = 0
KSW1 220523Z 17015KT 21/14 A2993 RMK A01 T02120144  RH  065%=      5-min Rain = 0
KSW1 220524Z 17015KT 21/15 A2993 RMK A01 T02120145  RH  065%=      5-min Rain = 0
KSW1 220525Z 17015G22KT 21/15 A2993 RMK A01 T02120145  RH  065%=      5-min Rain = 0
KSW1 220526Z 17015KT 21/14 A2993 RMK A01 T02120144  RH  065%=      5-min Rain = 0
KSW1 220527Z 17014KT 21/14 A2993 RMK A01 T02120144  RH  065%=      5-min Rain = 0
KSW1 220528Z 18014KT 21/14 A2993 RMK A01 T02120144  RH  065%=      5-min Rain = 0
KSW1 220529Z 17014KT 21/15 A2993 RMK A01 T02120145  RH  065%=      5-min Rain = 0
KSW1 220530Z 17016KT 21/15 A2993 RMK A01 T02120145  RH  066%=      5-min Rain = 0
KSW1 220531Z 17016KT 21/15 A2993 RMK A01 T02120145  RH  066%=      5-min Rain = 0
KSW1 220532Z 17014KT 21/15 A2993 RMK A01 T02120145  RH  065%=      5-min Rain = 0
KSW1 220533Z 17013KT 21/15 A2993 RMK A01 T02120145  RH  065%=      5-min Rain = 0
KSW1 220534Z 17015KT 21/15 A2993 RMK A01 T02110145  RH  066%=      5-min Rain = 0
KSW1 220535Z 17015KT 21/14 A2993 RMK A01 T02100144  RH  066%=      5-min Rain = 0
KSW1 220536Z 17014KT 21/14 A2993 RMK A01 T02100144  RH  066%=      5-min Rain = 0
KSW1 220537Z 17016KT 21/14 A2993 RMK A01 T02100144  RH  066%=      5-min Rain = 0
KSW1 220538Z 17012KT 21/14 A2993 RMK A01 T02100144  RH  066%=      5-min Rain = 0
KSW1 220539Z 17013KT 21/14 A2993 RMK A01 T02100144  RH  066%=      5-min Rain = 0
KSW1 220540Z 17013KT 21/14 A2993 RMK A01 T02100144  RH  066%=      5-min Rain = 0
KSW1 220541Z 17012KT 21/14 A2993 RMK A01 T02100144  RH  066%=      5-min Rain = 0
KSW1 220542Z 17014G19KT 21/14 A2993 RMK A01 T02090144  RH  066%=      5-min Rain = 0
KSW1 220543Z 17013KT 21/14 A2993 RMK A01 T02090144  RH  066%=      5-min Rain = 0
KSW1 220544Z 17013KT 21/14 A2993 RMK A01 T02090144  RH  066%=      5-min Rain = 0
KSW1 220545Z 17014KT 21/14 A2993 RMK A01 T02090144  RH  066%=      5-min Rain = 0
KSW1 220546Z 17012KT 21/14 A2993 RMK A01 T02090144  RH  066%=      5-min Rain = 0
KSW1 220547Z 17011KT 21/14 A2993 RMK A01 T02090144  RH  066%=      5-min Rain = 0
KSW1 220548Z 17014KT 21/14 A2993 RMK A01 T02080144  RH  067%=      5-min Rain = 0
KSW1 220549Z 17013KT 21/14 A2993 RMK A01 T02090144  RH  066%=      5-min Rain = 0
KSW1 220550Z 17014KT 21/14 A2993 RMK A01 T02090144  RH  066%=      5-min Rain = 0
KSW1 220551Z 17014KT 21/14 A2993 RMK A01 T02090144  RH  066%=      5-min Rain = 0
KSW1 220552Z 17015KT 21/14 A2993 RMK A01 T02100144  RH  066%=      5-min Rain = 0
KSW1 220553Z 17013KT 21/14 A2993 RMK A01 T02090144  RH  066%=      5-min Rain = 0
KSW1 220554Z 17015KT 21/14 A2993 RMK A01 T02090144  RH  066%=      5-min Rain = 0
KSW1 220555Z 17013KT 21/14 A2993 RMK A01 T02090144  RH  066%=      5-min Rain = 0
KSW1 220556Z 17014KT 21/14 A2993 RMK A01 T02090144  RH  066%=      5-min Rain = 0
KSW1 220557Z 17013G18KT 21/14 A2993 RMK A01 T02090144  RH  066%=      5-min Rain = 0
KSW1 220558Z 17012KT 21/14 A2993 RMK A01 T02080144  RH  066%=      5-min Rain = 0
KSW1 220559Z 17012KT 21/14 A2993 RMK A01 T02080144  RH  067%=      5-min Rain = 0
KSW1 220600Z 17013KT 21/14 A2993 RMK A01 T02070144  RH  067%=      5-min Rain = 0
KSW1 220601Z 17014KT 21/14 A2993 RMK A01 T02070144  RH  067%=      5-min Rain = 0
KSW1 220602Z 17013KT 21/14 A2993 RMK A01 T02070144  RH  067%=      5-min Rain = 0
KSW1 220603Z 17012KT 21/14 A2993 RMK A01 T02070144  RH  067%=      5-min Rain = 0
KSW1 220604Z 16013KT 21/14 A2993 RMK A01 T02070143  RH  067%=      5-min Rain = 0
KSW1 220605Z 16014KT 21/14 A2993 RMK A01 T02070143  RH  067%=      5-min Rain = 0
KSW1 220606Z 17015KT 21/14 A2993 RMK A01 T02070143  RH  067%=      5-min Rain = 0
KSW1 220607Z 16014KT 21/14 A2993 RMK A01 T02080143  RH  067%=      5-min Rain = 0
KSW1 220608Z 16014KT 21/14 A2993 RMK A01 T02080143  RH  066%=      5-min Rain = 0
KSW1 220609Z 16013KT 21/14 A2993 RMK A01 T02080143  RH  066%=      5-min Rain = 0
KSW1 220610Z 16014KT 21/14 A2993 RMK A01 T02080143  RH  066%=      5-min Rain = 0
KSW1 220611Z 16013KT 21/14 A2993 RMK A01 T02080143  RH  066%=      5-min Rain = 0
KSW1 220612Z 16012KT 21/14 A2993 RMK A01 T02080144  RH  067%=      5-min Rain = 0
KSW1 220613Z 16011KT 21/14 A2993 RMK A01 T02070144  RH  067%=      5-min Rain = 0
KSW1 220614Z 16013KT 21/14 A2993 RMK A01 T02060144  RH  068%=      5-min Rain = 0
KSW1 220615Z 15012KT 21/14 A2993 RMK A01 T02060144  RH  068%=      5-min Rain = 0
KSW1 220616Z 15012KT 21/14 A2993 RMK A01 T02050144  RH  068%=      5-min Rain = 0
KSW1 220617Z 15012KT 20/14 A2993 RMK A01 T02040144  RH  068%=      5-min Rain = 0
KSW1 220618Z 15012KT 20/14 A2993 RMK A01 T02030144  RH  069%=      5-min Rain = 0
KSW1 220619Z 15013KT 20/14 A2993 RMK A01 T02030144  RH  069%=      5-min Rain = 0
KSW1 220620Z 15011KT 20/14 A2993 RMK A01 T02030144  RH  069%=      5-min Rain = 0
KSW1 220621Z 15013KT 20/14 A2993 RMK A01 T02020144  RH  069%=      5-min Rain = 0
KSW1 220622Z 16012KT 20/14 A2993 RMK A01 T02020144  RH  069%=      5-min Rain = 0
KSW1 220623Z 16010KT 20/14 A2993 RMK A01 T02020144  RH  069%=      5-min Rain = 0
KSW1 220624Z 16012KT 20/14 A2993 RMK A01 T02020144  RH  070%=      5-min Rain = 0
KSW1 220625Z 16012KT 20/14 A2993 RMK A01 T02020144  RH  070%=      5-min Rain = 0
KSW1 220626Z 16014KT 20/14 A2993 RMK A01 T02010144  RH  070%=      5-min Rain = 0
KSW1 220627Z 16013KT 20/14 A2993 RMK A01 T02010144  RH  070%=      5-min Rain = 0
KSW1 220628Z 16013KT 20/14 A2993 RMK A01 T02020144  RH  069%=      5-min Rain = 0
KSW1 220629Z 16012KT 20/14 A2993 RMK A01 T02020144  RH  069%=      5-min Rain = 0
KSW1 220630Z 16012KT 20/14 A2993 RMK A01 T02010144  RH  070%=      5-min Rain = 0
KSW1 220631Z 16013KT 20/14 A2993 RMK A01 T02010144  RH  070%=      5-min Rain = 0
KSW1 220632Z 17013KT 20/14 A2993 RMK A01 T02010144  RH  070%=      5-min Rain = 0
KSW1 220633Z 16013KT 20/14 A2993 RMK A01 T02010144  RH  070%=      5-min Rain = 0
KSW1 220634Z 17012KT 20/14 A2993 RMK A01 T02010143  RH  069%=      5-min Rain = 0
KSW1 220635Z 16012KT 20/14 A2993 RMK A01 T02010143  RH  069%=      5-min Rain = 0
KSW1 220636Z 17012KT 20/14 A2993 RMK A01 T02010143  RH  069%=      5-min Rain = 0
KSW1 220637Z 16013KT 20/14 A2993 RMK A01 T02010144  RH  069%=      5-min Rain = 0
KSW1 220638Z 17011KT 20/14 A2993 RMK A01 T02010143  RH  069%=      5-min Rain = 0
KSW1 220639Z 16013KT 20/14 A2993 RMK A01 T02010143  RH  069%=      5-min Rain = 0
KSW1 220640Z 16012KT 20/14 A2993 RMK A01 T02010143  RH  069%=      5-min Rain = 0
KSW1 220641Z 16012KT 20/14 A2993 RMK A01 T02010143  RH  069%=      5-min Rain = 0
KSW1 220642Z 17011KT 20/14 A2993 RMK A01 T02010144  RH  070%=      5-min Rain = 0
KSW1 220643Z 17012KT 20/14 A2993 RMK A01 T02000144  RH  070%=      5-min Rain = 0
KSW1 220644Z 17012KT 20/14 A2993 RMK A01 T02000143  RH  070%=      5-min Rain = 0
KSW1 220645Z 16013KT 20/14 A2993 RMK A01 T02000144  RH  070%=      5-min Rain = 0
KSW1 220646Z 16014KT 20/14 A2993 RMK A01 T02000143  RH  070%=      5-min Rain = 0
KSW1 220647Z 16012KT 20/14 A2993 RMK A01 T02000143  RH  070%=      5-min Rain = 0
KSW1 220648Z 16013KT 20/14 A2993 RMK A01 T02000143  RH  070%=      5-min Rain = 0
KSW1 220649Z 16012KT 20/14 A2993 RMK A01 T02000143  RH  070%=      5-min Rain = 0
KSW1 220650Z 17013KT 20/14 A2993 RMK A01 T01990143  RH  070%=      5-min Rain = 0
KSW1 220651Z 17014KT 20/14 A2993 RMK A01 T01990143  RH  070%=      5-min Rain = 0
KSW1 220652Z 17012KT 20/14 A2993 RMK A01 T01990143  RH  070%=      5-min Rain = 0
KSW1 220653Z 17013KT 20/14 A2993 RMK A01 T01990143  RH  070%=      5-min Rain = 0
KSW1 220654Z 16014KT 20/14 A2993 RMK A01 T01990143  RH  070%=      5-min Rain = 0
KSW1 220655Z 16014KT 20/14 A2993 RMK A01 T01990143  RH  070%=      5-min Rain = 0
KSW1 220656Z 16014KT 20/14 A2993 RMK A01 T01990143  RH  070%=      5-min Rain = 0
KSW1 220657Z 17012KT 20/14 A2993 RMK A01 T01990144  RH  070%=      5-min Rain = 0
KSW1 220658Z 17011KT 20/14 A2993 RMK A01 T01980143  RH  071%=      5-min Rain = 0
KSW1 220659Z 16011KT 20/14 A2993 RMK A01 T01980144  RH  071%=      5-min Rain = 0
KSW1 220700Z 17012KT 20/14 A2993 RMK A01 T01970144  RH  071%=      5-min Rain = 0
KSW1 220701Z 16013KT 20/14 A2993 RMK A01 T01970143  RH  071%=      5-min Rain = 0
KSW1 220702Z 16013KT 20/14 A2993 RMK A01 T01970144  RH  071%=      5-min Rain = 0
KSW1 220703Z 16012KT 20/14 A2993 RMK A01 T01970144  RH  071%=      5-min Rain = 0
KSW1 220704Z 16013KT 20/14 A2993 RMK A01 T01970144  RH  071%=      5-min Rain = 0
KSW1 220705Z 16013KT 20/14 A2993 RMK A01 T01970144  RH  071%=      5-min Rain = 0
KSW1 220706Z 16010KT 20/14 A2993 RMK A01 T01970144  RH  071%=      5-min Rain = 0
KSW1 220707Z 16012KT 20/14 A2993 RMK A01 T01970144  RH  072%=      5-min Rain = 0
KSW1 220708Z 16012KT 20/14 A2993 RMK A01 T01960144  RH  072%=      5-min Rain = 0
KSW1 220709Z 16012G17KT 20/14 A2993 RMK A01 T01960144  RH  072%=      5-min Rain = 0
KSW1 220710Z 15011KT 20/14 A2993 RMK A01 T01960144  RH  072%=      5-min Rain = 0
KSW1 220711Z 16011KT 20/14 A2993 RMK A01 T01960144  RH  072%=      5-min Rain = 0
KSW1 220712Z 16011KT 20/14 A2993 RMK A01 T01950144  RH  072%=      5-min Rain = 0
KSW1 220713Z 16011KT 20/15 A2994 RMK A01 T01950145  RH  073%=      5-min Rain = 0
KSW1 220714Z 15012KT 19/15 A2994 RMK A01 T01940145  RH  073%=      5-min Rain = 0
KSW1 220715Z 16011KT 19/15 A2994 RMK A01 T01940145  RH  073%=      5-min Rain = 0
KSW1 220716Z 16010KT 19/15 A2994 RMK A01 T01940145  RH  073%=      5-min Rain = 0
KSW1 220717Z 16011KT 19/15 A2994 RMK A01 T01930145  RH  074%=      5-min Rain = 0
KSW1 220718Z 16011KT 19/15 A2994 RMK A01 T01930145  RH  074%=      5-min Rain = 0
KSW1 220719Z 16011KT 19/15 A2994 RMK A01 T01930145  RH  074%=      5-min Rain = 0
KSW1 220720Z 16010KT 19/15 A2994 RMK A01 T01930145  RH  074%=      5-min Rain = 0
KSW1 220721Z 16009KT 19/15 A2994 RMK A01 T01920145  RH  074%=      5-min Rain = 0
KSW1 220722Z 16010KT 19/15 A2993 RMK A01 T01920145  RH  074%=      5-min Rain = 0
KSW1 220723Z 16010KT 19/15 A2993 RMK A01 T01920145  RH  074%=      5-min Rain = 0
KSW1 220724Z 16011KT 19/15 A2993 RMK A01 T01910145  RH  074%=      5-min Rain = 0
KSW1 220725Z 15010KT 19/15 A2993 RMK A01 T01910145  RH  075%=      5-min Rain = 0
KSW1 220726Z 15011KT 19/15 A2993 RMK A01 T01910145  RH  075%=      5-min Rain = 0
KSW1 220727Z 16012KT 19/15 A2993 RMK A01 T01910145  RH  075%=      5-min Rain = 0
KSW1 220728Z 16011KT 19/15 A2993 RMK A01 T01900145  RH  075%=      5-min Rain = 0
KSW1 220729Z 16012KT 19/15 A2993 RMK A01 T01900145  RH  075%=      5-min Rain = 0
KSW1 220730Z 16011KT 19/15 A2993 RMK A01 T01900145  RH  075%=      5-min Rain = 0
KSW1 220731Z 16012KT 19/15 A2993 RMK A01 T01900145  RH  075%=      5-min Rain = 0
KSW1 220732Z 16011KT 19/14 A2993 RMK A01 T01890144  RH  075%=      5-min Rain = 0
KSW1 220733Z 16011KT 19/15 A2993 RMK A01 T01890145  RH  075%=      5-min Rain = 0
KSW1 220734Z 16011KT 19/15 A2993 RMK A01 T01890145  RH  075%=      5-min Rain = 0
KSW1 220735Z 16011KT 19/15 A2993 RMK A01 T01890145  RH  076%=      5-min Rain = 0
KSW1 220736Z 15012G17KT 19/14 A2993 RMK A01 T01880144  RH  076%=      5-min Rain = 0
KSW1 220737Z 16010KT 19/14 A2993 RMK A01 T01880144  RH  075%=      5-min Rain = 0
KSW1 220738Z 16010KT 19/14 A2993 RMK A01 T01880144  RH  075%=      5-min Rain = 0
KSW1 220739Z 16011G16KT 19/14 A2993 RMK A01 T01880144  RH  076%=      5-min Rain = 0
KSW1 220740Z 16010KT 19/14 A2993 RMK A01 T01880144  RH  076%=      5-min Rain = 0
KSW1 220741Z 16012KT 19/15 A2992 RMK A01 T01880145  RH  076%=      5-min Rain = 0
KSW1 220742Z 15010KT 19/15 A2992 RMK A01 T01880145  RH  076%=      5-min Rain = 0
KSW1 220743Z 16011KT 19/15 A2992 RMK A01 T01880145  RH  076%=      5-min Rain = 0
KSW1 220744Z 16011KT 19/14 A2992 RMK A01 T01870144  RH  076%=      5-min Rain = 0
KSW1 220745Z 16011KT 19/15 A2993 RMK A01 T01870145  RH  076%=      5-min Rain = 0
KSW1 220746Z 16012KT 19/15 A2993 RMK A01 T01860145  RH  077%=      5-min Rain = 0
KSW1 220747Z 15011KT 19/15 A2993 RMK A01 T01860145  RH  077%=      5-min Rain = 0
KSW1 220748Z 16012KT 19/15 A2993 RMK A01 T01860145  RH  077%=      5-min Rain = 0
KSW1 220749Z 16011KT 19/15 A2993 RMK A01 T01860145  RH  077%=      5-min Rain = 0
KSW1 220750Z 16012KT 19/15 A2993 RMK A01 T01860145  RH  077%=      5-min Rain = 0
KSW1 220751Z 15013KT 19/15 A2993 RMK A01 T01850145  RH  077%=      5-min Rain = 0
KSW1 220752Z 15013KT 19/15 A2993 RMK A01 T01860145  RH  077%=      5-min Rain = 0
KSW1 220753Z 16011KT 19/15 A2993 RMK A01 T01860145  RH  077%=      5-min Rain = 0
KSW1 220754Z 15011KT 19/15 A2993 RMK A01 T01850145  RH  077%=      5-min Rain = 0
KSW1 220755Z 15010KT 19/15 A2993 RMK A01 T01850145  RH  078%=      5-min Rain = 0
KSW1 220756Z 16011KT 18/15 A2993 RMK A01 T01840145  RH  078%=      5-min Rain = 0
KSW1 220757Z 16010KT 18/15 A2993 RMK A01 T01840145  RH  078%=      5-min Rain = 0
KSW1 220758Z 16011KT 18/15 A2993 RMK A01 T01840145  RH  078%=      5-min Rain = 0
KSW1 220759Z 16012KT 18/15 A2993 RMK A01 T01830145  RH  078%=      5-min Rain = 0
KSW1 220800Z 16011KT 18/15 A2993 RMK A01 T01830145  RH  078%=      5-min Rain = 0
KSW1 220801Z 16011KT 18/15 A2993 RMK A01 T01830145  RH  079%=      5-min Rain = 0
KSW1 220802Z 16011KT 18/15 A2993 RMK A01 T01830145  RH  079%=      5-min Rain = 0
KSW1 220803Z 15011KT 18/15 A2993 RMK A01 T01820145  RH  079%=      5-min Rain = 0
KSW1 220804Z 16011KT 18/15 A2993 RMK A01 T01820145  RH  079%=      5-min Rain = 0
KSW1 220805Z 16010KT 18/15 A2993 RMK A01 T01820145  RH  079%=      5-min Rain = 0
KSW1 220806Z 16011KT 18/15 A2993 RMK A01 T01820145  RH  079%=      5-min Rain = 0
KSW1 220807Z 16012KT 18/15 A2993 RMK A01 T01820146  RH  079%=      5-min Rain = 0
KSW1 220808Z 16010KT 18/15 A2993 RMK A01 T01820146  RH  079%=      5-min Rain = 0
KSW1 220809Z 16011KT 18/15 A2993 RMK A01 T01820146  RH  079%=      5-min Rain = 0
KSW1 220810Z 16010KT 18/15 A2993 RMK A01 T01810146  RH  080%=      5-min Rain = 0
KSW1 220811Z 16010KT 18/15 A2993 RMK A01 T01810146  RH  080%=      5-min Rain = 0
KSW1 220812Z 16010KT 18/15 A2993 RMK A01 T01810146  RH  080%=      5-min Rain = 0
KSW1 220813Z 16011KT 18/15 A2993 RMK A01 T01810146  RH  080%=      5-min Rain = 0
KSW1 220814Z 16009KT 18/15 A2993 RMK A01 T01810146  RH  080%=      5-min Rain = 0
KSW1 220815Z 16010KT 18/15 A2993 RMK A01 T01810146  RH  080%=      5-min Rain = 0
KSW1 220816Z 15009KT 18/15 A2993 RMK A01 T01800146  RH  080%=      5-min Rain = 0
KSW1 220817Z 15010KT 18/15 A2993 RMK A01 T01800146  RH  081%=      5-min Rain = 0
KSW1 220818Z 16010KT 18/15 A2993 RMK A01 T01800146  RH  081%=      5-min Rain = 0
KSW1 220819Z 15010KT 18/15 A2993 RMK A01 T01800147  RH  081%=      5-min Rain = 0
KSW1 220820Z 16011KT 18/15 A2993 RMK A01 T01800147  RH  081%=      5-min Rain = 0
KSW1 220821Z 15009KT 18/15 A2993 RMK A01 T01800147  RH  081%=      5-min Rain = 0
KSW1 220822Z 16010KT 18/15 A2993 RMK A01 T01800147  RH  081%=      5-min Rain = 0
KSW1 220823Z 15009KT 18/15 A2993 RMK A01 T01800147  RH  081%=      5-min Rain = 0
KSW1 220824Z 16008KT 18/15 A2993 RMK A01 T01790147  RH  081%=      5-min Rain = 0
KSW1 220825Z 15009KT 18/15 A2993 RMK A01 T01790147  RH  082%=      5-min Rain = 0
KSW1 220826Z 16012KT 18/15 A2993 RMK A01 T01780147  RH  082%=      5-min Rain = 0
KSW1 220827Z 16010KT 18/15 A2993 RMK A01 T01780147  RH  082%=      5-min Rain = 0
KSW1 220828Z 15010KT 18/15 A2993 RMK A01 T01780147  RH  082%=      5-min Rain = 0
KSW1 220829Z 15010KT 18/15 A2993 RMK A01 T01780147  RH  082%=      5-min Rain = 0
KSW1 220830Z 16011KT 18/15 A2993 RMK A01 T01780148  RH  082%=      5-min Rain = 0
KSW1 220831Z 15010KT 18/15 A2993 RMK A01 T01780148  RH  082%=      5-min Rain = 0
KSW1 220832Z 16012KT 18/15 A2993 RMK A01 T01780148  RH  082%=      5-min Rain = 0
KSW1 220833Z 15010KT 18/15 A2993 RMK A01 T01780148  RH  083%=      5-min Rain = 0
KSW1 220834Z 16011KT 18/15 A2993 RMK A01 T01780149  RH  083%=      5-min Rain = 0
KSW1 220835Z 16012KT 18/15 A2993 RMK A01 T01780149  RH  083%=      5-min Rain = 0
KSW1 220836Z 16010KT 18/15 A2993 RMK A01 T01780149  RH  083%=      5-min Rain = 0
KSW1 220837Z 16010KT 18/15 A2993 RMK A01 T01780149  RH  083%=      5-min Rain = 0
KSW1 220838Z 15010KT 18/15 A2993 RMK A01 T01770149  RH  083%=      5-min Rain = 0
KSW1 220839Z 15011KT 18/15 A2993 RMK A01 T01770149  RH  083%=      5-min Rain = 0
KSW1 220840Z 15009KT 18/15 A2993 RMK A01 T01770149  RH  083%=      5-min Rain = 0
KSW1 220841Z 15010KT 18/15 A2993 RMK A01 T01770149  RH  083%=      5-min Rain = 0
KSW1 220842Z 16011KT 18/15 A2993 RMK A01 T01770149  RH  083%=      5-min Rain = 0
KSW1 220843Z 16012KT 18/15 A2993 RMK A01 T01770149  RH  084%=      5-min Rain = 0
KSW1 220844Z 16011KT 18/15 A2993 RMK A01 T01770149  RH  084%=      5-min Rain = 0
KSW1 220845Z 16010KT 18/15 A2993 RMK A01 T01770149  RH  084%=      5-min Rain = 0
KSW1 220846Z 16012KT 18/15 A2993 RMK A01 T01770149  RH  084%=      5-min Rain = 0
KSW1 220847Z 16011KT 18/15 A2993 RMK A01 T01770150  RH  084%=      5-min Rain = 0
KSW1 220848Z 16012KT 18/15 A2993 RMK A01 T01770150  RH  084%=      5-min Rain = 0
KSW1 220849Z 15012KT 18/15 A2993 RMK A01 T01770150  RH  084%=      5-min Rain = 0
KSW1 220850Z 16011KT 18/15 A2993 RMK A01 T01760150  RH  085%=      5-min Rain = 0
KSW1 220851Z 16012KT 18/15 A2993 RMK A01 T01760150  RH  085%=      5-min Rain = 0
KSW1 220852Z 16010KT 18/15 A2993 RMK A01 T01760150  RH  085%=      5-min Rain = 0
KSW1 220853Z 16012KT 18/15 A2993 RMK A01 T01750150  RH  085%=      5-min Rain = 0
KSW1 220854Z 15011KT 18/15 A2993 RMK A01 T01750150  RH  085%=      5-min Rain = 0
KSW1 220855Z 16013KT 18/15 A2993 RMK A01 T01750151  RH  085%=      5-min Rain = 0
KSW1 220856Z 16011KT 18/15 A2993 RMK A01 T01750151  RH  086%=      5-min Rain = 0
KSW1 220857Z 16011KT 18/15 A2993 RMK A01 T01750151  RH  086%=      5-min Rain = 0
KSW1 220858Z 16011KT 18/15 A2993 RMK A01 T01750151  RH  086%=      5-min Rain = 0
KSW1 220859Z 16012KT 18/15 A2993 RMK A01 T01750151  RH  086%=      5-min Rain = 0
KSW1 220900Z 16011KT 18/15 A2993 RMK A01 T01750151  RH  086%=      5-min Rain = 0
KSW1 220901Z 16012KT 18/15 A2993 RMK A01 T01750151  RH  086%=      5-min Rain = 0
KSW1 220902Z 16011KT 18/15 A2993 RMK A01 T01750152  RH  086%=      5-min Rain = 0
KSW1 220903Z 16011KT 18/15 A2993 RMK A01 T01750151  RH  086%=      5-min Rain = 0
KSW1 220904Z 16011KT 18/15 A2993 RMK A01 T01750152  RH  086%=      5-min Rain = 0
KSW1 220905Z 16011G16KT 17/15 A2993 RMK A01 T01740152  RH  086%=      5-min Rain = 0
KSW1 220906Z 16012KT 17/15 A2993 RMK A01 T01740152  RH  087%=      5-min Rain = 0
KSW1 220907Z 16012KT 17/15 A2993 RMK A01 T01740152  RH  087%=      5-min Rain = 0
KSW1 220908Z 16009KT 18/15 A2993 RMK A01 T01750152  RH  087%=      5-min Rain = 0
KSW1 220909Z 16010KT 18/15 A2993 RMK A01 T01750152  RH  087%=      5-min Rain = 0
KSW1 220910Z 16009KT 17/15 A2993 RMK A01 T01740152  RH  087%=      5-min Rain = 0
KSW1 220911Z 16011KT 17/15 A2993 RMK A01 T01740152  RH  087%=      5-min Rain = 0
KSW1 220912Z 16011KT 17/15 A2993 RMK A01 T01740152  RH  087%=      5-min Rain = 0
KSW1 220913Z 16009KT 17/15 A2993 RMK A01 T01740152  RH  087%=      5-min Rain = 0
KSW1 220914Z 16009KT 17/15 A2993 RMK A01 T01740152  RH  087%=      5-min Rain = 0
KSW1 220915Z 15010KT 17/15 A2993 RMK A01 T01740153  RH  087%=      5-min Rain = 0
KSW1 220916Z 16009KT 17/15 A2993 RMK A01 T01730152  RH  087%=      5-min Rain = 0
KSW1 220917Z 16008KT 17/15 A2993 RMK A01 T01730152  RH  088%=      5-min Rain = 0
KSW1 220918Z 16009KT 17/15 A2993 RMK A01 T01730153  RH  088%=      5-min Rain = 0
KSW1 220919Z 16009KT 17/15 A2993 RMK A01 T01720153  RH  088%=      5-min Rain = 0
KSW1 220920Z 16009KT 17/15 A2993 RMK A01 T01720153  RH  088%=      5-min Rain = 0
KSW1 220921Z 16011KT 17/15 A2993 RMK A01 T01720153  RH  088%=      5-min Rain = 0
KSW1 220922Z 16009KT 17/15 A2993 RMK A01 T01720153  RH  088%=      5-min Rain = 0
KSW1 220923Z 16010KT 17/15 A2993 RMK A01 T01730153  RH  088%=      5-min Rain = 0
KSW1 220924Z 16009KT 17/15 A2993 RMK A01 T01730153  RH  088%=      5-min Rain = 0
KSW1 220925Z 16010KT 17/15 A2993 RMK A01 T01730153  RH  088%=      5-min Rain = 0
KSW1 220926Z 16009KT 17/15 A2993 RMK A01 T01730154  RH  088%=      5-min Rain = 0
KSW1 220927Z 16009KT 17/15 A2993 RMK A01 T01730153  RH  088%=      5-min Rain = 0
KSW1 220928Z 16009KT 17/15 A2993 RMK A01 T01720153  RH  089%=      5-min Rain = 0
KSW1 220929Z 17009KT 17/15 A2993 RMK A01 T01720153  RH  089%=      5-min Rain = 0
KSW1 220930Z 16008KT 17/15 A2993 RMK A01 T01720154  RH  089%=      5-min Rain = 0
KSW1 220931Z 16008KT 17/15 A2993 RMK A01 T01720153  RH  089%=      5-min Rain = 0
KSW1 220932Z 16009KT 17/15 A2993 RMK A01 T01720153  RH  089%=      5-min Rain = 0
KSW1 220933Z 16009KT 17/15 A2993 RMK A01 T01720154  RH  089%=      5-min Rain = 0
KSW1 220934Z 16008KT 17/15 A2994 RMK A01 T01710153  RH  089%=      5-min Rain = 0
KSW1 220935Z 16008KT 17/15 A2993 RMK A01 T01720153  RH  089%=      5-min Rain = 0
KSW1 220936Z 16009KT 17/15 A2993 RMK A01 T01710153  RH  089%=      5-min Rain = 0
KSW1 220937Z 16009KT 17/15 A2993 RMK A01 T01710153  RH  089%=      5-min Rain = 0
KSW1 220938Z 16008KT 17/15 A2993 RMK A01 T01710153  RH  089%=      5-min Rain = 0
KSW1 220939Z 16009KT 17/15 A2993 RMK A01 T01710154  RH  089%=      5-min Rain = 0
KSW1 220940Z 16010KT 17/15 A2993 RMK A01 T01710154  RH  089%=      5-min Rain = 0
KSW1 220941Z 16009KT 17/15 A2994 RMK A01 T01720154  RH  089%=      5-min Rain = 0
KSW1 220942Z 16009KT 17/15 A2994 RMK A01 T01720154  RH  089%=      5-min Rain = 0
KSW1 220943Z 16007KT 17/15 A2994 RMK A01 T01720154  RH  089%=      5-min Rain = 0
KSW1 220944Z 16010KT 17/15 A2994 RMK A01 T01720154  RH  089%=      5-min Rain = 0
KSW1 220945Z 17009KT 17/16 A2994 RMK A01 T01720155  RH  090%=      5-min Rain = 0
KSW1 220946Z 17009KT 17/16 A2994 RMK A01 T01720155  RH  090%=      5-min Rain = 0
KSW1 220947Z 17009KT 17/15 A2994 RMK A01 T01720154  RH  089%=      5-min Rain = 0
KSW1 220948Z 16009KT 17/16 A2993 RMK A01 T01720155  RH  090%=      5-min Rain = 0
KSW1 220949Z 16009KT 17/16 A2993 RMK A01 T01720155  RH  090%=      5-min Rain = 0
KSW1 220950Z 16010KT 17/16 A2993 RMK A01 T01720155  RH  090%=      5-min Rain = 0
KSW1 220951Z 16010KT 17/16 A2993 RMK A01 T01720155  RH  090%=      5-min Rain = 0
KSW1 220952Z 16011G16KT 17/16 A2993 RMK A01 T01720155  RH  090%=      5-min Rain = 0
KSW1 220953Z 17011KT 17/16 A2993 RMK A01 T01720155  RH  090%=      5-min Rain = 0
KSW1 220954Z 16010KT 17/16 A2993 RMK A01 T01730155  RH  089%=      5-min Rain = 0
KSW1 220955Z 16010KT 17/16 A2993 RMK A01 T01730155  RH  089%=      5-min Rain = 0
KSW1 220956Z 16010KT 17/16 A2993 RMK A01 T01730156  RH  090%=      5-min Rain = 0
KSW1 220957Z 16009KT 17/16 A2993 RMK A01 T01730156  RH  090%=      5-min Rain = 0
KSW1 220958Z 16011KT 17/16 A2993 RMK A01 T01730156  RH  090%=      5-min Rain = 0
KSW1 220959Z 17009KT 17/16 A2993 RMK A01 T01720156  RH  090%=      5-min Rain = 0
KSW1 221000Z 16010KT 17/16 A2993 RMK A01 T01720155  RH  090%=      5-min Rain = 0
KSW1 221001Z 17011KT 17/16 A2994 RMK A01 T01720155  RH  090%=      5-min Rain = 0
KSW1 221002Z 17010KT 17/16 A2994 RMK A01 T01720155  RH  090%=      5-min Rain = 0
KSW1 221003Z 16010KT 17/16 A2994 RMK A01 T01720156  RH  090%=      5-min Rain = 0
KSW1 221004Z 17011KT 17/16 A2994 RMK A01 T01720156  RH  090%=      5-min Rain = 0
KSW1 221005Z 17009KT 17/16 A2994 RMK A01 T01720155  RH  090%=      5-min Rain = 0
KSW1 221006Z 17011KT 17/16 A2993 RMK A01 T01720156  RH  090%=      5-min Rain = 0
KSW1 221007Z 17011KT 17/16 A2993 RMK A01 T01720156  RH  090%=      5-min Rain = 0
KSW1 221008Z 17010KT 17/16 A2993 RMK A01 T01720156  RH  090%=      5-min Rain = 0
KSW1 221009Z 17012KT 17/16 A2993 RMK A01 T01720156  RH  090%=      5-min Rain = 0
KSW1 221010Z 17011KT 17/16 A2993 RMK A01 T01720156  RH  090%=      5-min Rain = 0
KSW1 221011Z 17011KT 17/16 A2993 RMK A01 T01720156  RH  090%=      5-min Rain = 0
KSW1 221012Z 17011G16KT 17/16 A2993 RMK A01 T01720155  RH  090%=      5-min Rain = 0
KSW1 221013Z 17010KT 17/16 A2993 RMK A01 T01720156  RH  090%=      5-min Rain = 0
KSW1 221014Z 17011KT 17/16 A2993 RMK A01 T01720156  RH  090%=      5-min Rain = 0
KSW1 221015Z 16010KT 17/16 A2993 RMK A01 T01720156  RH  090%=      5-min Rain = 0
KSW1 221016Z 17010KT 17/16 A2993 RMK A01 T01720156  RH  090%=      5-min Rain = 0
KSW1 221017Z 17011KT 17/16 A2993 RMK A01 T01720156  RH  091%=      5-min Rain = 0
KSW1 221018Z 16011KT 17/16 A2993 RMK A01 T01720156  RH  091%=      5-min Rain = 0
KSW1 221019Z 16011KT 17/16 A2993 RMK A01 T01720156  RH  090%=      5-min Rain = 0
KSW1 221020Z 17010KT 17/16 A2993 RMK A01 T01720156  RH  091%=      5-min Rain = 0
KSW1 221021Z 17009KT 17/16 A2994 RMK A01 T01710156  RH  091%=      5-min Rain = 0
KSW1 221022Z 17012KT 17/16 A2994 RMK A01 T01710156  RH  091%=      5-min Rain = 0
KSW1 221023Z 17012KT 17/16 A2994 RMK A01 T01710156  RH  091%=      5-min Rain = 0
KSW1 221024Z 16011KT 17/16 A2994 RMK A01 T01710156  RH  091%=      5-min Rain = 0
KSW1 221025Z 16010KT 17/16 A2994 RMK A01 T01710156  RH  091%=      5-min Rain = 0
KSW1 221026Z 17010KT 17/16 A2994 RMK A01 T01710156  RH  091%=      5-min Rain = 0
KSW1 221027Z 16012KT 17/16 A2994 RMK A01 T01710156  RH  091%=      5-min Rain = 0
KSW1 221028Z 16012KT 17/16 A2994 RMK A01 T01710155  RH  091%=      5-min Rain = 0
KSW1 221029Z 16012KT 17/16 A2994 RMK A01 T01710156  RH  091%=      5-min Rain = 0
KSW1 221030Z 17011KT 17/16 A2994 RMK A01 T01710156  RH  091%=      5-min Rain = 0
KSW1 221031Z 17009KT 17/16 A2994 RMK A01 T01710155  RH  091%=      5-min Rain = 0
KSW1 221032Z 17011KT 17/16 A2994 RMK A01 T01710156  RH  091%=      5-min Rain = 0
KSW1 221033Z 17011KT 17/16 A2994 RMK A01 T01710156  RH  091%=      5-min Rain = 0
KSW1 221034Z 16011KT 17/16 A2994 RMK A01 T01710156  RH  091%=      5-min Rain = 0
KSW1 221035Z 17011KT 17/16 A2994 RMK A01 T01700156  RH  091%=      5-min Rain = 0
KSW1 221036Z 16010KT 17/16 A2994 RMK A01 T01700156  RH  091%=      5-min Rain = 0
KSW1 221037Z 16011KT 17/16 A2994 RMK A01 T01710156  RH  091%=      5-min Rain = 0
KSW1 221038Z 16011KT 17/16 A2994 RMK A01 T01700156  RH  091%=      5-min Rain = 0
KSW1 221039Z 17012KT 17/16 A2994 RMK A01 T01700156  RH  091%=      5-min Rain = 0
KSW1 221040Z 17009KT 17/16 A2994 RMK A01 T01700156  RH  091%=      5-min Rain = 0
KSW1 221041Z 16008KT 17/16 A2994 RMK A01 T01700156  RH  091%=      5-min Rain = 0
KSW1 221042Z 16009KT 17/16 A2994 RMK A01 T01690156  RH  092%=      5-min Rain = 0
KSW1 221043Z 16009KT 17/16 A2994 RMK A01 T01690155  RH  092%=      5-min Rain = 0
KSW1 221044Z 16011KT 17/16 A2994 RMK A01 T01690156  RH  092%=      5-min Rain = 0
KSW1 221045Z 16011KT 17/16 A2994 RMK A01 T01690156  RH  092%=      5-min Rain = 0
KSW1 221046Z 16011KT 17/16 A2994 RMK A01 T01690156  RH  092%=      5-min Rain = 0
KSW1 221047Z 16010KT 17/16 A2994 RMK A01 T01690155  RH  092%=      5-min Rain = 0
KSW1 221048Z 16011KT 17/16 A2994 RMK A01 T01690155  RH  092%=      5-min Rain = 0
KSW1 221049Z 16012KT 17/16 A2994 RMK A01 T01680155  RH  092%=      5-min Rain = 0
KSW1 221050Z 16009KT 17/16 A2994 RMK A01 T01690155  RH  092%=      5-min Rain = 0
KSW1 221051Z 16010KT 17/16 A2994 RMK A01 T01690155  RH  092%=      5-min Rain = 0
KSW1 221052Z 16010KT 17/16 A2994 RMK A01 T01680155  RH  092%=      5-min Rain = 0
KSW1 221053Z 16010KT 17/16 A2994 RMK A01 T01680155  RH  092%=      5-min Rain = 0
KSW1 221054Z 16012KT 17/16 A2994 RMK A01 T01680155  RH  092%=      5-min Rain = 0
KSW1 221055Z 16011KT 17/16 A2993 RMK A01 T01680155  RH  092%=      5-min Rain = 0
KSW1 221056Z 16010KT 17/16 A2993 RMK A01 T01680155  RH  092%=      5-min Rain = 0
KSW1 221057Z 16012KT 17/15 A2993 RMK A01 T01680154  RH  092%=      5-min Rain = 0
KSW1 221058Z 16011KT 17/16 A2993 RMK A01 T01680155  RH  092%=      5-min Rain = 0
KSW1 221059Z 16013KT 17/16 A2993 RMK A01 T01680155  RH  092%=      5-min Rain = 0
KSW1 221100Z 17012KT 17/16 A2993 RMK A01 T01680155  RH  092%=      5-min Rain = 0
KSW1 221101Z 16010KT 17/15 A2993 RMK A01 T01680154  RH  092%=      5-min Rain = 0
KSW1 221102Z 16012KT 17/15 A2993 RMK A01 T01680154  RH  092%=      5-min Rain = 0
KSW1 221103Z 17012KT 17/15 A2993 RMK A01 T01680154  RH  092%=      5-min Rain = 0
KSW1 221104Z 16010KT 17/15 A2993 RMK A01 T01670154  RH  092%=      5-min Rain = 0
KSW1 221105Z 16011KT 17/15 A2993 RMK A01 T01670154  RH  092%=      5-min Rain = 0
KSW1 221106Z 16011KT 17/15 A2993 RMK A01 T01670154  RH  092%=      5-min Rain = 0
KSW1 221107Z 16010KT 17/15 A2993 RMK A01 T01670154  RH  092%=      5-min Rain = 0
KSW1 221108Z 17011KT 17/15 A2993 RMK A01 T01670154  RH  092%=      5-min Rain = 0
KSW1 221109Z 17012KT 17/15 A2993 RMK A01 T01670154  RH  092%=      5-min Rain = 0
KSW1 221110Z 16011G16KT 17/15 A2993 RMK A01 T01670153  RH  092%=      5-min Rain = 0
KSW1 221111Z 16011KT 17/15 A2993 RMK A01 T01670153  RH  092%=      5-min Rain = 0
KSW1 221112Z 17010KT 17/15 A2993 RMK A01 T01670153  RH  092%=      5-min Rain = 0
KSW1 221113Z 16011KT 17/15 A2993 RMK A01 T01670153  RH  092%=      5-min Rain = 0
KSW1 221114Z 16013KT 17/15 A2993 RMK A01 T01670153  RH  092%=      5-min Rain = 0
KSW1 221115Z 17013KT 17/15 A2993 RMK A01 T01660152  RH  091%=      5-min Rain = 0
KSW1 221116Z 17013KT 17/15 A2993 RMK A01 T01670152  RH  091%=      5-min Rain = 0
KSW1 221117Z 17011KT 17/15 A2993 RMK A01 T01670152  RH  091%=      5-min Rain = 0
KSW1 221118Z 17014KT 17/15 A2993 RMK A01 T01670152  RH  091%=      5-min Rain = 0
KSW1 221119Z 17012KT 17/15 A2993 RMK A01 T01670152  RH  091%=      5-min Rain = 0
KSW1 221120Z 17012KT 17/15 A2993 RMK A01 T01670152  RH  091%=      5-min Rain = 0
KSW1 221121Z 16012KT 17/15 A2993 RMK A01 T01670152  RH  091%=      5-min Rain = 0
KSW1 221122Z 17010KT 17/15 A2993 RMK A01 T01670152  RH  091%=      5-min Rain = 0
KSW1 221123Z 17009KT 17/15 A2993 RMK A01 T01670152  RH  091%=      5-min Rain = 0
KSW1 221124Z 17010KT 17/15 A2993 RMK A01 T01660152  RH  091%=      5-min Rain = 0
KSW1 221125Z 17010KT 17/15 A2993 RMK A01 T01660152  RH  091%=      5-min Rain = 0
KSW1 221126Z 17009KT 17/15 A2993 RMK A01 T01660151  RH  091%=      5-min Rain = 0
KSW1 221127Z 17009KT 17/15 A2993 RMK A01 T01660151  RH  091%=      5-min Rain = 0
KSW1 221128Z 17012KT 17/15 A2993 RMK A01 T01660151  RH  091%=      5-min Rain = 0
KSW1 221129Z 17011KT 17/15 A2994 RMK A01 T01660151  RH  091%=      5-min Rain = 0
KSW1 221130Z 17009KT 17/15 A2994 RMK A01 T01670151  RH  091%=      5-min Rain = 0
KSW1 221131Z 17009KT 17/15 A2994 RMK A01 T01660151  RH  091%=      5-min Rain = 0
KSW1 221132Z 17009KT 17/15 A2994 RMK A01 T01660151  RH  091%=      5-min Rain = 0
KSW1 221133Z 16010KT 17/15 A2994 RMK A01 T01660151  RH  091%=      5-min Rain = 0
KSW1 221134Z 17010KT 17/15 A2994 RMK A01 T01660151  RH  091%=      5-min Rain = 0
KSW1 221135Z 16010KT 17/15 A2994 RMK A01 T01660151  RH  091%=      5-min Rain = 0
KSW1 221136Z 16011KT 17/15 A2994 RMK A01 T01660150  RH  090%=      5-min Rain = 0
KSW1 221137Z 16011KT 17/15 A2994 RMK A01 T01660150  RH  090%=      5-min Rain = 0
KSW1 221138Z 16011KT 17/15 A2994 RMK A01 T01660150  RH  090%=      5-min Rain = 0
KSW1 221139Z 16011KT 17/15 A2994 RMK A01 T01660150  RH  090%=      5-min Rain = 0
KSW1 221140Z 16011KT 17/15 A2994 RMK A01 T01660150  RH  090%=      5-min Rain = 0
KSW1 221141Z 16010KT 17/15 A2994 RMK A01 T01660150  RH  090%=      5-min Rain = 0
KSW1 221142Z 17009KT 17/15 A2994 RMK A01 T01660150  RH  090%=      5-min Rain = 0
KSW1 221143Z 17009KT 17/15 A2994 RMK A01 T01660150  RH  090%=      5-min Rain = 0
KSW1 221144Z 17008KT 17/15 A2994 RMK A01 T01660150  RH  090%=      5-min Rain = 0
KSW1 221145Z 17008KT 17/15 A2994 RMK A01 T01660150  RH  090%=      5-min Rain = 0
KSW1 221146Z 17009KT 17/15 A2994 RMK A01 T01660150  RH  091%=      5-min Rain = 0
KSW1 221147Z 17010KT 17/15 A2994 RMK A01 T01650150  RH  091%=      5-min Rain = 0
KSW1 221148Z 17010KT 17/15 A2994 RMK A01 T01650150  RH  091%=      5-min Rain = 0
KSW1 221149Z 16010KT 17/15 A2994 RMK A01 T01650150  RH  091%=      5-min Rain = 0
KSW1 221150Z 17009KT 17/15 A2994 RMK A01 T01650150  RH  091%=      5-min Rain = 0
KSW1 221151Z 16010KT 17/15 A2994 RMK A01 T01650149  RH  090%=      5-min Rain = 0
KSW1 221152Z 16009KT 17/15 A2994 RMK A01 T01650150  RH  091%=      5-min Rain = 0
KSW1 221153Z 17008KT 17/15 A2994 RMK A01 T01650150  RH  091%=      5-min Rain = 0
KSW1 221154Z 17009KT 17/15 A2994 RMK A01 T01650150  RH  091%=      5-min Rain = 0
KSW1 221155Z 16009KT 16/15 A2994 RMK A01 T01640150  RH  091%=      5-min Rain = 0
KSW1 221156Z 16010KT 16/15 A2994 RMK A01 T01640150  RH  091%=      5-min Rain = 0
KSW1 221157Z 16011KT 16/15 A2994 RMK A01 T01640150  RH  091%=      5-min Rain = 0
KSW1 221158Z 17010KT 16/15 A2994 RMK A01 T01640150  RH  091%=      5-min Rain = 0
KSW1 221159Z 17011KT 16/15 A2995 RMK A01 T01640149  RH  091%=      5-min Rain = 0
KSW1 221200Z 17011KT 16/15 A2995 RMK A01 T01640150  RH  091%=      5-min Rain = 0
KSW1 221201Z 17008KT 17/15 A2995 RMK A01 T01650150  RH  091%=      5-min Rain = 0
KSW1 221202Z 16010KT 17/15 A2995 RMK A01 T01650150  RH  091%=      5-min Rain = 0
KSW1 221203Z 17010KT 16/15 A2995 RMK A01 T01640149  RH  091%=      5-min Rain = 0
KSW1 221204Z 17010KT 16/15 A2995 RMK A01 T01640149  RH  091%=      5-min Rain = 0
KSW1 221205Z 17011KT 16/15 A2995 RMK A01 T01640149  RH  091%=      5-min Rain = 0
KSW1 221206Z 17010KT 16/15 A2995 RMK A01 T01640149  RH  091%=      5-min Rain = 0
KSW1 221207Z 17009KT 16/15 A2995 RMK A01 T01640149  RH  091%=      5-min Rain = 0
KSW1 221208Z 17010KT 16/15 A2995 RMK A01 T01640149  RH  091%=      5-min Rain = 0
KSW1 221209Z 17009KT 16/15 A2995 RMK A01 T01640149  RH  091%=      5-min Rain = 0
KSW1 221210Z 17009KT 16/15 A2995 RMK A01 T01640149  RH  091%=      5-min Rain = 0
KSW1 221211Z 17011KT 16/15 A2995 RMK A01 T01640149  RH  091%=      5-min Rain = 0
KSW1 221212Z 17011KT 16/15 A2995 RMK A01 T01640149  RH  091%=      5-min Rain = 0
KSW1 221213Z 17010KT 16/15 A2995 RMK A01 T01640149  RH  091%=      5-min Rain = 0
KSW1 221214Z 17010KT 16/15 A2995 RMK A01 T01640149  RH  091%=      5-min Rain = 0
KSW1 221215Z 17010KT 16/15 A2995 RMK A01 T01640149  RH  091%=      5-min Rain = 0
KSW1 221216Z 17010KT 16/15 A2995 RMK A01 T01640149  RH  091%=      5-min Rain = 0
KSW1 221217Z 17010KT 16/15 A2995 RMK A01 T01640149  RH  091%=      5-min Rain = 0
KSW1 221218Z 17012KT 16/15 A2996 RMK A01 T01630148  RH  091%=      5-min Rain = 0
KSW1 221219Z 17011KT 16/15 A2996 RMK A01 T01630148  RH  091%=      5-min Rain = 0
KSW1 221220Z 17011KT 16/15 A2996 RMK A01 T01630148  RH  091%=      5-min Rain = 0
KSW1 221221Z 17012KT 16/15 A2996 RMK A01 T01630148  RH  091%=      5-min Rain = 0
KSW1 221222Z 17011KT 16/15 A2996 RMK A01 T01640148  RH  091%=      5-min Rain = 0
KSW1 221223Z 17011KT 16/15 A2996 RMK A01 T01640148  RH  091%=      5-min Rain = 0
KSW1 221224Z 17010KT 16/15 A2996 RMK A01 T01640148  RH  091%=      5-min Rain = 0
KSW1 221225Z 17010KT 16/15 A2996 RMK A01 T01630148  RH  091%=      5-min Rain = 0
KSW1 221226Z 16013KT 16/15 A2996 RMK A01 T01630148  RH  091%=      5-min Rain = 0
KSW1 221227Z 17010KT 16/15 A2996 RMK A01 T01630148  RH  091%=      5-min Rain = 0
KSW1 221228Z 17009KT 16/15 A2996 RMK A01 T01630148  RH  091%=      5-min Rain = 0
KSW1 221229Z 16011KT 16/15 A2996 RMK A01 T01630148  RH  091%=      5-min Rain = 0
KSW1 221230Z 16012KT 16/15 A2996 RMK A01 T01630148  RH  091%=      5-min Rain = 0
KSW1 221231Z 17011KT 16/15 A2996 RMK A01 T01630148  RH  091%=      5-min Rain = 0
KSW1 221232Z 17010KT 16/15 A2996 RMK A01 T01630148  RH  091%=      5-min Rain = 0
KSW1 221233Z 17012KT 16/15 A2996 RMK A01 T01630148  RH  091%=      5-min Rain = 0
KSW1 221234Z 17010KT 16/15 A2996 RMK A01 T01630148  RH  091%=      5-min Rain = 0
KSW1 221235Z 17011KT 16/15 A2996 RMK A01 T01630148  RH  091%=      5-min Rain = 0
KSW1 221236Z 17011KT 16/15 A2996 RMK A01 T01630148  RH  091%=      5-min Rain = 0
KSW1 221237Z 17013G18KT 16/15 A2996 RMK A01 T01630148  RH  091%=      5-min Rain = 0
KSW1 221238Z 17013KT 16/15 A2996 RMK A01 T01630147  RH  091%=      5-min Rain = 0
KSW1 221239Z 17011KT 16/15 A2996 RMK A01 T01630148  RH  091%=      5-min Rain = 0
KSW1 221240Z 17011KT 16/15 A2996 RMK A01 T01630148  RH  090%=      5-min Rain = 0
KSW1 221241Z 17010KT 16/15 A2996 RMK A01 T01630148  RH  090%=      5-min Rain = 0
KSW1 221242Z 17010KT 16/15 A2996 RMK A01 T01630147  RH  090%=      5-min Rain = 0
KSW1 221243Z 17011KT 16/15 A2996 RMK A01 T01630147  RH  090%=      5-min Rain = 0
KSW1 221244Z 17009KT 16/15 A2996 RMK A01 T01630147  RH  090%=      5-min Rain = 0
KSW1 221245Z 17010KT 16/15 A2996 RMK A01 T01630148  RH  091%=      5-min Rain = 0
KSW1 221246Z 17011KT 16/15 A2996 RMK A01 T01630148  RH  091%=      5-min Rain = 0
KSW1 221247Z 17013KT 16/15 A2996 RMK A01 T01630147  RH  091%=      5-min Rain = 0
KSW1 221248Z 17011KT 16/15 A2996 RMK A01 T01630147  RH  090%=      5-min Rain = 0
KSW1 221249Z 16010KT 16/15 A2996 RMK A01 T01630147  RH  090%=      5-min Rain = 0
KSW1 221250Z 17010KT 16/15 A2996 RMK A01 T01630147  RH  090%=      5-min Rain = 0
KSW1 221251Z 16009KT 16/15 A2996 RMK A01 T01630147  RH  090%=      5-min Rain = 0
KSW1 221252Z 16010KT 16/15 A2996 RMK A01 T01630147  RH  091%=      5-min Rain = 0
KSW1 221253Z 16010KT 16/15 A2996 RMK A01 T01630148  RH  091%=      5-min Rain = 0
KSW1 221254Z 17011KT 16/15 A2996 RMK A01 T01630148  RH  091%=      5-min Rain = 0
KSW1 221255Z 16009KT 16/15 A2996 RMK A01 T01630148  RH  091%=      5-min Rain = 0
KSW1 221256Z 16009KT 16/15 A2997 RMK A01 T01630148  RH  091%=      5-min Rain = 0
KSW1 221257Z 17010KT 16/15 A2997 RMK A01 T01630148  RH  091%=      5-min Rain = 0
KSW1 221258Z 17011KT 16/15 A2997 RMK A01 T01630148  RH  091%=      5-min Rain = 0
KSW1 221259Z 16012KT 16/15 A2997 RMK A01 T01630148  RH  091%=      5-min Rain = 0
KSW1 221300Z 17011KT 16/15 A2997 RMK A01 T01630148  RH  091%=      5-min Rain = 0
KSW1 221301Z 17011KT 16/15 A2997 RMK A01 T01630148  RH  091%=      5-min Rain = 0
KSW1 221302Z 16012KT 16/15 A2997 RMK A01 T01630148  RH  091%=      5-min Rain = 0
KSW1 221303Z 16013KT 16/15 A2997 RMK A01 T01630148  RH  091%=      5-min Rain = 0
KSW1 221304Z 16012KT 16/15 A2997 RMK A01 T01630148  RH  090%=      5-min Rain = 0
KSW1 221305Z 16011KT 16/15 A2997 RMK A01 T01630148  RH  090%=      5-min Rain = 0
KSW1 221306Z 17011KT 16/15 A2997 RMK A01 T01630148  RH  091%=      5-min Rain = 0
KSW1 221307Z 16012KT 16/15 A2997 RMK A01 T01630148  RH  091%=      5-min Rain = 0
KSW1 221308Z 16012KT 16/15 A2997 RMK A01 T01630148  RH  091%=      5-min Rain = 0
KSW1 221309Z 16011KT 16/15 A2997 RMK A01 T01630148  RH  091%=      5-min Rain = 0
KSW1 221310Z 16011KT 16/15 A2997 RMK A01 T01630148  RH  091%=      5-min Rain = 0
KSW1 221311Z 16010KT 16/15 A2997 RMK A01 T01640148  RH  091%=      5-min Rain = 0
KSW1 221312Z 16013KT 16/15 A2997 RMK A01 T01640148  RH  090%=      5-min Rain = 0
KSW1 221313Z 16011KT 17/15 A2997 RMK A01 T01650149  RH  090%=      5-min Rain = 0
KSW1 221314Z 16010KT 17/15 A2997 RMK A01 T01650149  RH  090%=      5-min Rain = 0
KSW1 221315Z 16011KT 17/15 A2997 RMK A01 T01650149  RH  090%=      5-min Rain = 0
KSW1 221316Z 16012KT 17/15 A2997 RMK A01 T01660149  RH  090%=      5-min Rain = 0
KSW1 221317Z 17011KT 17/15 A2997 RMK A01 T01660149  RH  090%=      5-min Rain = 0
KSW1 221318Z 16011KT 17/15 A2997 RMK A01 T01670149  RH  089%=      5-min Rain = 0
KSW1 221319Z 16010KT 17/15 A2997 RMK A01 T01670149  RH  089%=      5-min Rain = 0
KSW1 221320Z 16011KT 17/15 A2997 RMK A01 T01670149  RH  089%=      5-min Rain = 0
KSW1 221321Z 16012KT 17/15 A2998 RMK A01 T01670149  RH  089%=      5-min Rain = 0
KSW1 221322Z 16013KT 17/15 A2998 RMK A01 T01670149  RH  089%=      5-min Rain = 0
KSW1 221323Z 17011KT 17/15 A2998 RMK A01 T01670149  RH  089%=      5-min Rain = 0
KSW1 221324Z 16016KT 17/15 A2998 RMK A01 T01670149  RH  089%=      5-min Rain = 0
KSW1 221325Z 17012G17KT 17/15 A2998 RMK A01 T01670149  RH  089%=      5-min Rain = 0
KSW1 221326Z 16012KT 17/15 A2998 RMK A01 T01670149  RH  089%=      5-min Rain = 0
KSW1 221327Z 16014KT 17/15 A2998 RMK A01 T01670149  RH  089%=      5-min Rain = 0
KSW1 221328Z 17014KT 17/15 A2998 RMK A01 T01670149  RH  089%=      5-min Rain = 0
KSW1 221329Z 16014KT 17/15 A2998 RMK A01 T01670149  RH  089%=      5-min Rain = 0
KSW1 221330Z 16013KT 17/15 A2998 RMK A01 T01670149  RH  089%=      5-min Rain = 0
KSW1 221331Z 16013KT 17/15 A2998 RMK A01 T01670149  RH  089%=      5-min Rain = 0
KSW1 221332Z 16011KT 17/15 A2998 RMK A01 T01670149  RH  089%=      5-min Rain = 0
KSW1 221333Z 16012KT 17/15 A2998 RMK A01 T01670149  RH  089%=      5-min Rain = 0
KSW1 221334Z 16014KT 17/15 A2998 RMK A01 T01670149  RH  089%=      5-min Rain = 0
KSW1 221335Z 17012KT 17/15 A2998 RMK A01 T01670149  RH  089%=      5-min Rain = 0
KSW1 221336Z 16012KT 17/15 A2998 RMK A01 T01670149  RH  089%=      5-min Rain = 0
KSW1 221337Z 16013KT 17/15 A2998 RMK A01 T01680149  RH  089%=      5-min Rain = 0
KSW1 221338Z 17011KT 17/15 A2998 RMK A01 T01680149  RH  088%=      5-min Rain = 0
KSW1 221339Z 16014KT 17/15 A2998 RMK A01 T01680149  RH  089%=      5-min Rain = 0
KSW1 221340Z 16015KT 17/15 A2998 RMK A01 T01680149  RH  088%=      5-min Rain = 0
KSW1 221341Z 16013KT 17/15 A2998 RMK A01 T01680149  RH  088%=      5-min Rain = 0
KSW1 221342Z 16014KT 17/15 A2998 RMK A01 T01680149  RH  089%=      5-min Rain = 0
KSW1 221343Z 16014KT 17/15 A2998 RMK A01 T01680150  RH  089%=      5-min Rain = 0
KSW1 221344Z 16015KT 17/15 A2998 RMK A01 T01680149  RH  089%=      5-min Rain = 0
KSW1 221345Z 16015KT 17/15 A2998 RMK A01 T01680150  RH  089%=      5-min Rain = 0
KSW1 221346Z 16014KT 17/15 A2998 RMK A01 T01680149  RH  089%=      5-min Rain = 0
KSW1 221347Z 16011KT 17/15 A2998 RMK A01 T01680150  RH  089%=      5-min Rain = 0
KSW1 221348Z 16013G18KT 17/15 A2998 RMK A01 T01690150  RH  089%=      5-min Rain = 0
KSW1 221349Z 16015KT 17/15 A2998 RMK A01 T01690150  RH  088%=      5-min Rain = 0
KSW1 221350Z 17015KT 17/15 A2998 RMK A01 T01690150  RH  088%=      5-min Rain = 0
KSW1 221351Z 16012KT 17/15 A2998 RMK A01 T01690150  RH  088%=      5-min Rain = 0
KSW1 221352Z 16013KT 17/15 A2998 RMK A01 T01700150  RH  088%=      5-min Rain = 0
KSW1 221353Z 16014KT 17/15 A2998 RMK A01 T01700150  RH  088%=      5-min Rain = 0
KSW1 221354Z 16013KT 17/15 A2998 RMK A01 T01710150  RH  088%=      5-min Rain = 0
KSW1 221355Z 17013KT 17/15 A2998 RMK A01 T01710151  RH  088%=      5-min Rain = 0
KSW1 221356Z 17012KT 17/15 A2998 RMK A01 T01720150  RH  087%=      5-min Rain = 0
KSW1 221357Z 17011KT 17/15 A2998 RMK A01 T01720152  RH  088%=      5-min Rain = 0
KSW1 221358Z 17014KT 17/15 A2998 RMK A01 T01730151  RH  087%=      5-min Rain = 0
KSW1 221359Z 16016KT 17/15 A2998 RMK A01 T01730150  RH  086%=      5-min Rain = 0
KSW1 221400Z 17017KT 17/15 A2998 RMK A01 T01720150  RH  086%=      5-min Rain = 0
KSW1 221401Z 17014KT 17/15 A2998 RMK A01 T01720149  RH  087%=      5-min Rain = 0
KSW1 221402Z 16013KT 17/15 A2998 RMK A01 T01710150  RH  087%=      5-min Rain = 0
KSW1 221403Z 17016KT 17/15 A2998 RMK A01 T01720150  RH  087%=      5-min Rain = 0
KSW1 221404Z 16013KT 17/15 A2998 RMK A01 T01720150  RH  087%=      5-min Rain = 0
KSW1 221405Z 17013KT 17/15 A2998 RMK A01 T01720151  RH  087%=      5-min Rain = 0
KSW1 221406Z 17013KT 17/15 A2998 RMK A01 T01720150  RH  087%=      5-min Rain = 0
KSW1 221407Z 17014KT 17/15 A2998 RMK A01 T01730150  RH  086%=      5-min Rain = 0
KSW1 221408Z 17014KT 17/15 A2998 RMK A01 T01730150  RH  086%=      5-min Rain = 0
KSW1 221409Z 17015KT 17/15 A2998 RMK A01 T01730150  RH  086%=      5-min Rain = 0
KSW1 221410Z 16012KT 17/15 A2998 RMK A01 T01730151  RH  087%=      5-min Rain = 0
KSW1 221411Z 17013KT 17/15 A2998 RMK A01 T01740151  RH  086%=      5-min Rain = 0
KSW1 221412Z 17014KT 17/15 A2998 RMK A01 T01740151  RH  086%=      5-min Rain = 0
KSW1 221413Z 17013KT 17/15 A2998 RMK A01 T01740151  RH  086%=      5-min Rain = 0
KSW1 221414Z 17014KT 17/15 A2998 RMK A01 T01740151  RH  086%=      5-min Rain = 0
KSW1 221415Z 16017KT 17/15 A2998 RMK A01 T01740150  RH  086%=      5-min Rain = 0
KSW1 221416Z 17016KT 17/15 A2998 RMK A01 T01740150  RH  086%=      5-min Rain = 0
KSW1 221417Z 17012KT 17/15 A2998 RMK A01 T01740151  RH  086%=      5-min Rain = 0
KSW1 221418Z 16012G17KT 17/15 A2998 RMK A01 T01740151  RH  086%=      5-min Rain = 0
KSW1 221419Z 17015KT 18/15 A2998 RMK A01 T01750151  RH  086%=      5-min Rain = 0
KSW1 221420Z 17015KT 18/15 A2998 RMK A01 T01750151  RH  086%=      5-min Rain = 0
KSW1 221421Z 17014KT 18/15 A2998 RMK A01 T01750150  RH  085%=      5-min Rain = 0
KSW1 221422Z 17012KT 18/15 A2998 RMK A01 T01750151  RH  086%=      5-min Rain = 0
KSW1 221423Z 16011G17KT 18/15 A2998 RMK A01 T01760152  RH  086%=      5-min Rain = 0
KSW1 221424Z 17014KT 18/15 A2998 RMK A01 T01770152  RH  085%=      5-min Rain = 0
KSW1 221425Z 18014KT 18/15 A2998 RMK A01 T01770151  RH  085%=      5-min Rain = 0
KSW1 221426Z 18013KT 18/15 A2998 RMK A01 T01770152  RH  085%=      5-min Rain = 0
KSW1 221427Z 17013KT 18/15 A2998 RMK A01 T01770151  RH  085%=      5-min Rain = 0
KSW1 221428Z 17013KT 18/15 A2998 RMK A01 T01770152  RH  085%=      5-min Rain = 0
KSW1 221429Z 17014KT 18/15 A2998 RMK A01 T01770151  RH  085%=      5-min Rain = 0
KSW1 221430Z 18015KT 18/15 A2998 RMK A01 T01770151  RH  085%=      5-min Rain = 0
KSW1 221431Z 18017KT 18/15 A2998 RMK A01 T01770151  RH  085%=      5-min Rain = 0
KSW1 221432Z 17016KT 18/15 A2998 RMK A01 T01770151  RH  084%=      5-min Rain = 0
KSW1 221433Z 17012G17KT 18/15 A2998 RMK A01 T01770151  RH  085%=      5-min Rain = 0
KSW1 221434Z 17014KT 18/15 A2998 RMK A01 T01780151  RH  084%=      5-min Rain = 0
KSW1 221435Z 18013KT 18/15 A2998 RMK A01 T01780150  RH  084%=      5-min Rain = 0
KSW1 221436Z 18012G17KT 18/15 A2998 RMK A01 T01790152  RH  084%=      5-min Rain = 0
KSW1 221437Z 18014KT 18/15 A2998 RMK A01 T01800152  RH  084%=      5-min Rain = 0
KSW1 221438Z 17016G21KT 18/15 A2998 RMK A01 T01800152  RH  084%=      5-min Rain = 0
KSW1 221439Z 18016KT 18/15 A2998 RMK A01 T01800151  RH  083%=      5-min Rain = 0
KSW1 221440Z 18016KT 18/15 A2998 RMK A01 T01800151  RH  083%=      5-min Rain = 0
KSW1 221441Z 17016KT 18/15 A2998 RMK A01 T01800152  RH  083%=      5-min Rain = 0
KSW1 221442Z 18017KT 18/15 A2998 RMK A01 T01800151  RH  083%=      5-min Rain = 0
KSW1 221443Z 17013KT 18/15 A2998 RMK A01 T01800151  RH  083%=      5-min Rain = 0
KSW1 221444Z 17014KT 18/15 A2998 RMK A01 T01800152  RH  084%=      5-min Rain = 0
KSW1 221445Z 17013G18KT 18/15 A2998 RMK A01 T01800151  RH  083%=      5-min Rain = 0
KSW1 221446Z 17015KT 18/15 A2999 RMK A01 T01810151  RH  083%=      5-min Rain = 0
KSW1 221447Z 17014KT 18/15 A2999 RMK A01 T01810151  RH  082%=      5-min Rain = 0
KSW1 221448Z 17016KT 18/15 A2998 RMK A01 T01810151  RH  082%=      5-min Rain = 0
KSW1 221449Z 17013KT 18/15 A2999 RMK A01 T01810151  RH  083%=      5-min Rain = 0
KSW1 221450Z 17014KT 18/15 A2999 RMK A01 T01810151  RH  082%=      5-min Rain = 0
KSW1 221451Z 18012KT 18/15 A2998 RMK A01 T01820151  RH  082%=      5-min Rain = 0
KSW1 221452Z 18014KT 18/15 A2998 RMK A01 T01820152  RH  082%=      5-min Rain = 0
KSW1 221453Z 17011KT 18/15 A2998 RMK A01 T01820152  RH  082%=      5-min Rain = 0
KSW1 221454Z 17013KT 18/15 A2998 RMK A01 T01830152  RH  082%=      5-min Rain = 0
KSW1 221455Z 18013KT 18/15 A2999 RMK A01 T01830152  RH  082%=      5-min Rain = 0
KSW1 221456Z 18014KT 18/15 A2998 RMK A01 T01830151  RH  082%=      5-min Rain = 0
KSW1 221457Z 17013KT 18/15 A2999 RMK A01 T01830152  RH  082%=      5-min Rain = 0
KSW1 221458Z 17012KT 18/15 A2999 RMK A01 T01830152  RH  082%=      5-min Rain = 0
KSW1 221459Z 17014KT 18/15 A2999 RMK A01 T01830151  RH  081%=      5-min Rain = 0
KSW1 221500Z 17011G16KT 18/15 A2999 RMK A01 T01830151  RH  082%=      5-min Rain = 0
KSW1 221501Z 18014KT 18/15 A2999 RMK A01 T01830151  RH  082%=      5-min Rain = 0
KSW1 221502Z 19014KT 18/15 A2999 RMK A01 T01840151  RH  081%=      5-min Rain = 0
KSW1 221503Z 18012KT 18/15 A2999 RMK A01 T01840151  RH  081%=      5-min Rain = 0
KSW1 221504Z 17014G19KT 18/15 A2999 RMK A01 T01830152  RH  082%=      5-min Rain = 0
KSW1 221505Z 17015KT 18/15 A2999 RMK A01 T01840151  RH  081%=      5-min Rain = 0
KSW1 221506Z 17014KT 18/15 A2999 RMK A01 T01840151  RH  081%=      5-min Rain = 0
KSW1 221507Z 18011G16KT 18/15 A2999 RMK A01 T01840153  RH  082%=      5-min Rain = 0
KSW1 221508Z 18015KT 19/15 A2999 RMK A01 T01850151  RH  081%=      5-min Rain = 0
KSW1 221509Z 18014KT 19/15 A2999 RMK A01 T01850151  RH  080%=      5-min Rain = 0
KSW1 221510Z 18013KT 18/15 A2999 RMK A01 T01840151  RH  081%=      5-min Rain = 0
KSW1 221511Z 17015KT 18/15 A2999 RMK A01 T01840151  RH  081%=      5-min Rain = 0
KSW1 221512Z 18011G16KT 18/15 A2999 RMK A01 T01840152  RH  081%=      5-min Rain = 0
KSW1 221513Z 18015KT 19/15 A2999 RMK A01 T01850151  RH  081%=      5-min Rain = 0
KSW1 221514Z 18013KT 19/15 A2999 RMK A01 T01860152  RH  081%=      5-min Rain = 0
KSW1 221515Z 18014KT 19/15 A2999 RMK A01 T01860151  RH  080%=      5-min Rain = 0
KSW1 221516Z 18014KT 19/15 A2999 RMK A01 T01870151  RH  080%=      5-min Rain = 0
KSW1 221517Z 18015KT 19/15 A2999 RMK A01 T01870152  RH  080%=      5-min Rain = 0
KSW1 221518Z 17014KT 19/15 A2999 RMK A01 T01860151  RH  080%=      5-min Rain = 0
KSW1 221519Z 17013G20KT 19/15 A2999 RMK A01 T01860151  RH  080%=      5-min Rain = 0
KSW1 221520Z 18016KT 19/15 A2999 RMK A01 T01870151  RH  080%=      5-min Rain = 0
KSW1 221521Z 18014KT 19/15 A2999 RMK A01 T01860151  RH  080%=      5-min Rain = 0
KSW1 221522Z 17012KT 19/15 A2999 RMK A01 T01870152  RH  080%=      5-min Rain = 0
KSW1 221523Z 17012KT 19/15 A30 RMK A01 T01880153  RH  080%=      5-min Rain = 0
KSW1 221524Z 17009KT 19/16 A30 RMK A01 T01890155  RH  080%=      5-min Rain = 0
KSW1 221525Z 17011KT 19/15 A30 RMK A01 T01910154  RH  079%=      5-min Rain = 0
KSW1 221526Z 17009KT 19/16 A30 RMK A01 T01910155  RH  079%=      5-min Rain = 0
KSW1 221527Z 16009KT 19/16 A30 RMK A01 T01920155  RH  079%=      5-min Rain = 0
KSW1 221528Z 18008KT 19/16 A30 RMK A01 T01940157  RH  079%=      5-min Rain = 0
KSW1 221529Z 17012KT 20/16 A30 RMK A01 T01950155  RH  078%=      5-min Rain = 0
KSW1 221530Z 17009KT 20/15 A30 RMK A01 T01950154  RH  077%=      5-min Rain = 0
KSW1 221531Z 18012KT 19/15 A3001 RMK A01 T01940154  RH  078%=      5-min Rain = 0
KSW1 221532Z 19010KT 19/15 A3001 RMK A01 T01930153  RH  078%=      5-min Rain = 0
KSW1 221533Z 18012KT 19/15 A3001 RMK A01 T01930153  RH  078%=      5-min Rain = 0
KSW1 221534Z 19011KT 19/15 A3001 RMK A01 T01920152  RH  078%=      5-min Rain = 0
KSW1 221535Z 18007KT 19/15 A3002 RMK A01 T01910151  RH  078%=      5-min Rain = 0
KSW1 221536Z 17005KT 19/15 A3002 RMK A01 T01900153  RH  079%=      5-min Rain = 0
KSW1 221537Z 16005KT 19/15 A3002 RMK A01 T01910153  RH  079%=      5-min Rain = 0
KSW1 221538Z 12003KT 19/15 A3003 RMK A01 T01910151  RH  077%=      5-min Rain = 0
KSW1 221539Z 12004KT 19/15 A3003 RMK A01 T01920152  RH  078%=      5-min Rain = 0
KSW1 221540Z 08002KT 19/15 A3003 RMK A01 T01920152  RH  077%=      5-min Rain = 0
KSW1 221541Z 08005KT 19/15 A3004 RMK A01 T01920153  RH  078%=      5-min Rain = 0
KSW1 221542Z 10007KT 19/15 A3004 RMK A01 T01910152  RH  078%=      5-min Rain = 0
KSW1 221543Z 11006KT 19/15 A3004 RMK A01 T01900151  RH  078%=      5-min Rain = 0
KSW1 221544Z 11005KT 19/15 A3004 RMK A01 T01880150  RH  078%=      5-min Rain = 0
KSW1 221545Z 13004KT 19/15 A3004 RMK A01 T01870151  RH  079%=      5-min Rain = 0
KSW1 221546Z 15004KT 19/15 A3003 RMK A01 T01870150  RH  079%=      5-min Rain = 0
KSW1 221547Z 15005KT 19/15 A3003 RMK A01 T01870151  RH  079%=      5-min Rain = 0
KSW1 221548Z 17005KT 19/15 A3003 RMK A01 T01870151  RH  079%=      5-min Rain = 0
KSW1 221549Z 18006KT 19/15 A3003 RMK A01 T01870151  RH  079%=      5-min Rain = 0
KSW1 221550Z 18006KT 19/15 A3003 RMK A01 T01880151  RH  079%=      5-min Rain = 0
KSW1 221551Z 18008KT 19/15 A3002 RMK A01 T01880152  RH  080%=      5-min Rain = 0
KSW1 221552Z 19010KT 19/15 A3002 RMK A01 T01900153  RH  079%=      5-min Rain = 0
KSW1 221553Z 18008KT 19/15 A3002 RMK A01 T01910154  RH  079%=      5-min Rain = 0
KSW1 221554Z 18009KT 19/16 A3002 RMK A01 T01930155  RH  078%=      5-min Rain = 0
KSW1 221555Z 16009KT 19/15 A3002 RMK A01 T01930153  RH  078%=      5-min Rain = 0
KSW1 221556Z 17008KT 19/15 A3002 RMK A01 T01940154  RH  077%=      5-min Rain = 0
KSW1 221557Z 16006KT 19/15 A3003 RMK A01 T01940154  RH  077%=      5-min Rain = 0
KSW1 221558Z 14004KT 20/15 A3003 RMK A01 T01950153  RH  077%=      5-min Rain = 0
KSW1 221559Z 16003KT 20/15 A3004 RMK A01 T01950154  RH  077%=      5-min Rain = 0
KSW1 221600Z 17003KT 20/15 A3004 RMK A01 T01960153  RH  076%=      5-min Rain = 0
KSW1 221601Z 23001KT 20/15 A3004 RMK A01 T01950152  RH  076%=      5-min Rain = 0
KSW1 221602Z 32001KT 19/15 A3005 RMK A01 T01940152  RH  077%=      5-min Rain = 0
KSW1 221603Z 29001KT 19/15 A3005 RMK A01 T01930151  RH  077%=      5-min Rain = 0
KSW1 221604Z 30001KT 19/15 A3005 RMK A01 T01920151  RH  077%=      5-min Rain = 0
KSW1 221605Z 27001KT 19/15 A3004 RMK A01 T01900150  RH  077%=      5-min Rain = 0
KSW1 221606Z 28000KT 19/15 A3004 RMK A01 T01900151  RH  078%=      5-min Rain = 0
KSW1 221607Z 17000KT 19/15 A3004 RMK A01 T01900151  RH  078%=      5-min Rain = 0
KSW1 221608Z 18001KT 19/15 A3004 RMK A01 T01910152  RH  078%=      5-min Rain = 0
KSW1 221609Z 16002KT 19/15 A3004 RMK A01 T01920152  RH  077%=      5-min Rain = 0
KSW1 221610Z 18003KT 19/15 A3003 RMK A01 T01920151  RH  077%=      5-min Rain = 0
KSW1 221611Z 17006G11KT 19/15 A3003 RMK A01 T01930154  RH  078%=      5-min Rain = 0
KSW1 221612Z 17006KT 19/15 A3003 RMK A01 T01940154  RH  078%=      5-min Rain = 0
KSW1 221613Z 18008KT 20/16 A3003 RMK A01 T01950155  RH  077%=      5-min Rain = 0
KSW1 221614Z 19007KT 20/15 A3002 RMK A01 T01960153  RH  076%=      5-min Rain = 0
KSW1 221615Z 19007KT 20/15 A3002 RMK A01 T01960153  RH  076%=      5-min Rain = 0
KSW1 221616Z 18005KT 20/15 A3003 RMK A01 T01950152  RH  076%=      5-min Rain = 0
KSW1 221617Z 18006KT 20/15 A3003 RMK A01 T01950154  RH  077%=      5-min Rain = 0
KSW1 221618Z 16005KT 20/15 A3003 RMK A01 T01950153  RH  077%=      5-min Rain = 0
KSW1 221619Z 17002KT 20/15 A3003 RMK A01 T01960152  RH  076%=      5-min Rain = 0
KSW1 221620Z 19001KT 20/15 A3004 RMK A01 T01960152  RH  075%=      5-min Rain = 0
KSW1 221621Z 08001KT 20/15 A3004 RMK A01 T01970151  RH  075%=      5-min Rain = 0
KSW1 221622Z 06002KT 20/15 A3004 RMK A01 T01970152  RH  075%=      5-min Rain = 0
KSW1 221623Z 05002KT 20/15 A3004 RMK A01 T01970151  RH  075%=      5-min Rain = 0
KSW1 221624Z 02003KT 20/15 A3004 RMK A01 T01950150  RH  075%=      5-min Rain = 0
KSW1 221625Z 02003KT 19/15 A3004 RMK A01 T01940151  RH  076%=      5-min Rain = 0
KSW1 221626Z 06004KT 19/15 A3004 RMK A01 T01930152  RH  077%=      5-min Rain = 0
KSW1 221627Z 04003KT 19/15 A3004 RMK A01 T01930153  RH  078%=      5-min Rain = 0
KSW1 221628Z 05003KT 19/15 A3004 RMK A01 T01940153  RH  077%=      5-min Rain = 0
KSW1 221629Z 06003KT 19/15 A3004 RMK A01 T01930152  RH  077%=      5-min Rain = 0
KSW1 221630Z 08004KT 19/15 A3004 RMK A01 T01940153  RH  077%=      5-min Rain = 0
KSW1 221631Z 10004KT 19/15 A3004 RMK A01 T01940153  RH  077%=      5-min Rain = 0
KSW1 221632Z 12003KT 19/15 A3004 RMK A01 T01940153  RH  077%=      5-min Rain = 0
KSW1 221633Z 13005KT 19/15 A3003 RMK A01 T01940152  RH  077%=      5-min Rain = 0
KSW1 221634Z 13006KT 19/15 A3003 RMK A01 T01940153  RH  077%=      5-min Rain = 0
KSW1 221635Z 15005KT 20/15 A3003 RMK A01 T01950154  RH  077%=      5-min Rain = 0
KSW1 221636Z 15007KT 20/16 A3002 RMK A01 T01960157  RH  078%=      5-min Rain = 0
KSW1 221637Z 16007KT 20/16 A3002 RMK A01 T01990157  RH  077%=      5-min Rain = 0
KSW1 221638Z 15009KT 20/15 A3002 RMK A01 T02000154  RH  075%=      5-min Rain = 0
KSW1 221639Z 15007KT 20/16 A3002 RMK A01 T02000155  RH  075%=      5-min Rain = 0
KSW1 221640Z 14007KT 20/16 A3002 RMK A01 T01990155  RH  076%=      5-min Rain = 0
KSW1 221641Z 14008KT 20/16 A3002 RMK A01 T01990155  RH  076%=      5-min Rain = 0
KSW1 221642Z 13008KT 20/15 A3003 RMK A01 T01990154  RH  075%=      5-min Rain = 0
KSW1 221643Z 12005KT 20/16 A3003 RMK A01 T01990155  RH  076%=      5-min Rain = 0
KSW1 221644Z 10005KT 20/16 A3003 RMK A01 T01990156  RH  076%=      5-min Rain = 0
KSW1 221645Z 11007KT 20/15 A3003 RMK A01 T02000154  RH  075%=      5-min Rain = 0
KSW1 221646Z 11006KT 20/15 A3004 RMK A01 T02000153  RH  074%=      5-min Rain = 0
KSW1 221647Z 11005KT 20/15 A3004 RMK A01 T01980153  RH  075%=      5-min Rain = 0
KSW1 221648Z 09005KT 20/16 A3004 RMK A01 T01980155  RH  076%=      5-min Rain = 0
KSW1 221649Z 08005KT 20/15 A3004 RMK A01 T01980153  RH  076%=      5-min Rain = 0
KSW1 221650Z 08007KT 20/15 A3004 RMK A01 T01970153  RH  076%=      5-min Rain = 0
KSW1 221651Z 10006KT 20/15 A3004 RMK A01 T01960153  RH  076%=      5-min Rain = 0
KSW1 221652Z 12006KT 20/16 A3004 RMK A01 T01960156  RH  078%=      5-min Rain = 0
KSW1 221653Z 12007KT 20/16 A3003 RMK A01 T01970155  RH  077%=      5-min Rain = 0
KSW1 221654Z 12007KT 20/16 A3003 RMK A01 T01980155  RH  076%=      5-min Rain = 0
KSW1 221655Z 13007KT 20/15 A3003 RMK A01 T01980153  RH  075%=      5-min Rain = 0
KSW1 221656Z 13006KT 20/15 A3003 RMK A01 T01980154  RH  076%=      5-min Rain = 0
KSW1 221657Z 13007KT 20/16 A3002 RMK A01 T01980156  RH  076%=      5-min Rain = 0
KSW1 221658Z 14006KT 20/15 A3002 RMK A01 T02000154  RH  075%=      5-min Rain = 0
KSW1 221659Z 14007KT 20/15 A3002 RMK A01 T02000154  RH  075%=      5-min Rain = 0
KSW1 221700Z 14006KT 20/16 A3002 RMK A01 T02000155  RH  075%=      5-min Rain = 0
KSW1 221701Z 15007KT 20/16 A3002 RMK A01 T02000156  RH  076%=      5-min Rain = 0
KSW1 221702Z 14008KT 20/16 A3002 RMK A01 T02000155  RH  075%=      5-min Rain = 0
KSW1 221703Z 13008KT 20/16 A3002 RMK A01 T02010155  RH  075%=      5-min Rain = 0
KSW1 221704Z 12007KT 20/16 A3002 RMK A01 T02010155  RH  075%=      5-min Rain = 0
KSW1 221705Z 12006KT 20/16 A3002 RMK A01 T02010156  RH  075%=      5-min Rain = 0
KSW1 221706Z 12007KT 20/16 A3002 RMK A01 T02020158  RH  075%=      5-min Rain = 0
KSW1 221707Z 13006KT 20/16 A3003 RMK A01 T02040158  RH  075%=      5-min Rain = 0
KSW1 221708Z 13006KT 21/16 A3003 RMK A01 T02050157  RH  074%=      5-min Rain = 0
KSW1 221709Z 11004KT 21/16 A3003 RMK A01 T02050160  RH  075%=      5-min Rain = 0
KSW1 221710Z 09006KT 21/16 A3003 RMK A01 T02070160  RH  075%=      5-min Rain = 0
KSW1 221711Z 08006KT 21/16 A3003 RMK A01 T02070156  RH  072%=      5-min Rain = 0
KSW1 221712Z 07006KT 21/16 A3003 RMK A01 T02060161  RH  075%=      5-min Rain = 0
KSW1 221713Z 08007KT 21/16 A3003 RMK A01 T02070158  RH  074%=      5-min Rain = 0
KSW1 221714Z 07006KT 21/16 A3003 RMK A01 T02070158  RH  074%=      5-min Rain = 0
KSW1 221715Z 06007KT 21/16 A3003 RMK A01 T02060158  RH  074%=      5-min Rain = 0
KSW1 221716Z 07008KT 21/16 A3003 RMK A01 T02050156  RH  073%=      5-min Rain = 0
KSW1 221717Z 08007KT 20/15 A3003 RMK A01 T02030154  RH  073%=      5-min Rain = 0
KSW1 221718Z 09006KT 20/15 A3003 RMK A01 T02010152  RH  074%=      5-min Rain = 0
KSW1 221719Z 10005KT 20/16 A3003 RMK A01 T02000155  RH  075%=      5-min Rain = 0
KSW1 221720Z 11007KT 20/16 A3003 RMK A01 T02000155  RH  075%=      5-min Rain = 0
KSW1 221721Z 13008KT 20/16 A3003 RMK A01 T02010156  RH  075%=      5-min Rain = 0
KSW1 221722Z 14006KT 20/16 A3002 RMK A01 T02020155  RH  074%=      5-min Rain = 0
KSW1 221723Z 14005KT 20/16 A3002 RMK A01 T02030156  RH  074%=      5-min Rain = 0
KSW1 221724Z 13007KT 20/16 A3002 RMK A01 T02030157  RH  075%=      5-min Rain = 0
KSW1 221725Z 13006KT 20/16 A3002 RMK A01 T02040155  RH  074%=      5-min Rain = 0
KSW1 221726Z 13006KT 20/16 A3002 RMK A01 T02030157  RH  075%=      5-min Rain = 0
KSW1 221727Z 14005KT 20/16 A3002 RMK A01 T02040158  RH  075%=      5-min Rain = 0
KSW1 221728Z 14007KT 21/16 A3002 RMK A01 T02050156  RH  073%=      5-min Rain = 0
KSW1 221729Z 12007KT 21/16 A3002 RMK A01 T02060158  RH  074%=      5-min Rain = 0
KSW1 221730Z 13006KT 21/16 A3003 RMK A01 T02060155  RH  073%=      5-min Rain = 0
KSW1 221731Z 13007KT 21/16 A3003 RMK A01 T02050158  RH  074%=      5-min Rain = 0
KSW1 221732Z 14008KT 21/16 A3003 RMK A01 T02060156  RH  073%=      5-min Rain = 0
KSW1 221733Z 13006KT 21/16 A3003 RMK A01 T02070155  RH  072%=      5-min Rain = 0
KSW1 221734Z 14005KT 21/16 A3003 RMK A01 T02080160  RH  074%=      5-min Rain = 0
KSW1 221735Z 13006KT 21/16 A3003 RMK A01 T02100158  RH  072%=      5-min Rain = 0
KSW1 221736Z 15005KT 21/15 A3003 RMK A01 T02100154  RH  071%=      5-min Rain = 0
KSW1 221737Z 15005KT 21/15 A3003 RMK A01 T02090154  RH  071%=      5-min Rain = 0
KSW1 221738Z 13006KT 21/16 A3004 RMK A01 T02080155  RH  071%=      5-min Rain = 0
KSW1 221739Z 11005KT 21/15 A3004 RMK A01 T02070153  RH  071%=      5-min Rain = 0
KSW1 221740Z 10003KT 21/15 A3004 RMK A01 T02050151  RH  071%=      5-min Rain = 0
KSW1 221741Z 10002KT 20/16 A3004 RMK A01 T02040155  RH  073%=      5-min Rain = 0
KSW1 221742Z 16003KT 21/16 A3004 RMK A01 T02050156  RH  073%=      5-min Rain = 0
KSW1 221743Z 15002KT 21/16 A3004 RMK A01 T02060155  RH  073%=      5-min Rain = 0
KSW1 221744Z 14003KT 21/16 A3004 RMK A01 T02070155  RH  072%=      5-min Rain = 0
KSW1 221745Z 15002KT 21/15 A3004 RMK A01 T02070152  RH  071%=      5-min Rain = 0
KSW1 221746Z 15002KT 21/15 A3004 RMK A01 T02070154  RH  072%=      5-min Rain = 0
KSW1 221747Z 15005KT 21/16 A3004 RMK A01 T02070156  RH  072%=      5-min Rain = 0
KSW1 221748Z 16006KT 21/16 A3004 RMK A01 T02070156  RH  072%=      5-min Rain = 0
KSW1 221749Z 17006KT 21/15 A3004 RMK A01 T02070154  RH  072%=      5-min Rain = 0
KSW1 221750Z 18004KT 21/15 A3004 RMK A01 T02070153  RH  071%=      5-min Rain = 0
KSW1 221751Z 18003KT 21/15 A3004 RMK A01 T02050152  RH  072%=      5-min Rain = 0
KSW1 221752Z 12005KT 20/16 A3004 RMK A01 T02040156  RH  074%=      5-min Rain = 0
KSW1 221753Z 14005KT 21/16 A3004 RMK A01 T02050155  RH  073%=      5-min Rain = 0
KSW1 221754Z 14008KT 21/16 A3004 RMK A01 T02060158  RH  074%=      5-min Rain = 0
KSW1 221755Z 14008KT 21/16 A3004 RMK A01 T02080157  RH  073%=      5-min Rain = 0
KSW1 221756Z 14006KT 21/16 A3003 RMK A01 T02080155  RH  071%=      5-min Rain = 0
KSW1 221757Z 13006KT 21/16 A3003 RMK A01 T02080157  RH  073%=      5-min Rain = 0
KSW1 221758Z 11005KT 21/16 A3003 RMK A01 T02080155  RH  072%=      5-min Rain = 0
KSW1 221759Z 13008KT 21/16 A3003 RMK A01 T02080155  RH  072%=      5-min Rain = 0
KSW1 221800Z 14007KT 21/16 A3003 RMK A01 T02070155  RH  072%=      5-min Rain = 0
KSW1 221801Z 14006KT 21/16 A3003 RMK A01 T02060156  RH  073%=      5-min Rain = 0
KSW1 221802Z 13009KT 21/16 A3003 RMK A01 T02060157  RH  073%=      5-min Rain = 0
KSW1 221803Z 16008KT 21/16 A3003 RMK A01 T02070157  RH  073%=      5-min Rain = 0
KSW1 221804Z 15008KT 21/16 A3003 RMK A01 T02080157  RH  072%=      5-min Rain = 0
KSW1 221805Z 13008KT 21/16 A3003 RMK A01 T02080157  RH  072%=      5-min Rain = 0
KSW1 221806Z 14007KT 21/16 A3003 RMK A01 T02080156  RH  072%=      5-min Rain = 0
KSW1 221807Z 13006KT 21/16 A3003 RMK A01 T02080157  RH  072%=      5-min Rain = 0
KSW1 221808Z 13007KT 21/16 A3003 RMK A01 T02070158  RH  073%=      5-min Rain = 0
KSW1 221809Z 13008KT 21/16 A3004 RMK A01 T02070156  RH  072%=      5-min Rain = 0
KSW1 221810Z 11006KT 21/16 A3004 RMK A01 T02070156  RH  073%=      5-min Rain = 0
KSW1 221811Z 11004KT 21/15 A3004 RMK A01 T02060153  RH  072%=      5-min Rain = 0
KSW1 221812Z 10005KT 20/16 A3004 RMK A01 T02040155  RH  073%=      5-min Rain = 0
KSW1 221813Z 14004KT 20/15 A3004 RMK A01 T02040154  RH  073%=      5-min Rain = 0
KSW1 221814Z 17006KT 20/16 A3004 RMK A01 T02040155  RH  073%=      5-min Rain = 0
KSW1 221815Z 17006KT 20/16 A3004 RMK A01 T02040155  RH  073%=      5-min Rain = 0
KSW1 221816Z 15007KT 21/16 A3004 RMK A01 T02050156  RH  073%=      5-min Rain = 0
KSW1 221817Z 16007KT 21/15 A3004 RMK A01 T02050154  RH  073%=      5-min Rain = 0
KSW1 221818Z 16007KT 20/15 A3003 RMK A01 T02040154  RH  073%=      5-min Rain = 0
KSW1 221819Z 14005KT 20/16 A3003 RMK A01 T02040157  RH  074%=      5-min Rain = 0
KSW1 221820Z 15008KT 20/16 A3003 RMK A01 T02040155  RH  073%=      5-min Rain = 0
KSW1 221821Z 17006KT 20/15 A3003 RMK A01 T02040154  RH  073%=      5-min Rain = 0
KSW1 221822Z 13008KT 20/16 A3003 RMK A01 T02040156  RH  073%=      5-min Rain = 0
KSW1 221823Z 13010KT 20/16 A3003 RMK A01 T02040155  RH  073%=      5-min Rain = 0
KSW1 221824Z 13007KT 20/16 A3003 RMK A01 T02040155  RH  073%=      5-min Rain = 0
KSW1 221825Z 14006KT 20/16 A3003 RMK A01 T02040155  RH  073%=      5-min Rain = 0
KSW1 221826Z 15007KT 20/16 A3003 RMK A01 T02040156  RH  074%=      5-min Rain = 0
KSW1 221827Z 15008KT 21/16 A3002 RMK A01 T02050157  RH  074%=      5-min Rain = 0
KSW1 221828Z 15008KT 21/16 A3002 RMK A01 T02070157  RH  073%=      5-min Rain = 0
KSW1 221829Z 13009KT 21/16 A3002 RMK A01 T02080157  RH  073%=      5-min Rain = 0
KSW1 221830Z 13009KT 21/16 A3002 RMK A01 T02080157  RH  072%=      5-min Rain = 0
KSW1 221831Z 13006KT 21/16 A3002 RMK A01 T02070155  RH  072%=      5-min Rain = 0
KSW1 221832Z 13008KT 21/16 A3002 RMK A01 T02060157  RH  073%=      5-min Rain = 0
KSW1 221833Z 12008KT 21/16 A3002 RMK A01 T02060155  RH  072%=      5-min Rain = 0
KSW1 221834Z 11007KT 21/16 A3002 RMK A01 T02060155  RH  073%=      5-min Rain = 0
KSW1 221835Z 12007KT 21/16 A3002 RMK A01 T02060157  RH  073%=      5-min Rain = 0
KSW1 221836Z 11008KT 21/16 A3002 RMK A01 T02070157  RH  073%=      5-min Rain = 0
KSW1 221837Z 10008KT 21/16 A3002 RMK A01 T02080155  RH  072%=      5-min Rain = 0
KSW1 221838Z 09009KT 21/16 A3002 RMK A01 T02070155  RH  072%=      5-min Rain = 0
KSW1 221839Z 10008KT 21/16 A3002 RMK A01 T02060156  RH  073%=      5-min Rain = 0
KSW1 221840Z 11006KT 21/15 A3002 RMK A01 T02050154  RH  073%=      5-min Rain = 0
KSW1 221841Z 10005KT 21/16 A3002 RMK A01 T02050156  RH  074%=      5-min Rain = 0
KSW1 221842Z 12006KT 20/16 A3002 RMK A01 T02040157  RH  074%=      5-min Rain = 0
KSW1 221843Z 13007KT 21/16 A3002 RMK A01 T02060156  RH  073%=      5-min Rain = 0
KSW1 221844Z 12007KT 21/15 A3002 RMK A01 T02070153  RH  071%=      5-min Rain = 0
KSW1 221845Z 11007KT 21/16 A3002 RMK A01 T02060155  RH  072%=      5-min Rain = 0
KSW1 221846Z 11008KT 21/16 A3002 RMK A01 T02060157  RH  073%=      5-min Rain = 0
KSW1 221847Z 11008KT 21/16 A3002 RMK A01 T02060155  RH  073%=      5-min Rain = 0
KSW1 221848Z 11008KT 21/16 A3002 RMK A01 T02060155  RH  072%=      5-min Rain = 0
KSW1 221849Z 11007KT 21/15 A3002 RMK A01 T02060154  RH  072%=      5-min Rain = 0
KSW1 221850Z 11007KT 21/15 A3002 RMK A01 T02050154  RH  072%=      5-min Rain = 0
KSW1 221851Z 10008KT 21/16 A3002 RMK A01 T02050155  RH  073%=      5-min Rain = 0
KSW1 221852Z 11007KT 21/15 A3002 RMK A01 T02050154  RH  073%=      5-min Rain = 0
KSW1 221853Z 12007KT 21/16 A3002 RMK A01 T02050155  RH  073%=      5-min Rain = 0
KSW1 221854Z 11006KT 21/16 A3002 RMK A01 T02060156  RH  073%=      5-min Rain = 0
KSW1 221855Z 13007KT 21/16 A3002 RMK A01 T02070156  RH  073%=      5-min Rain = 0
KSW1 221856Z 12008KT 21/16 A3002 RMK A01 T02080155  RH  072%=      5-min Rain = 0
KSW1 221857Z 13008KT 21/15 A3002 RMK A01 T02080153  RH  071%=      5-min Rain = 0
KSW1 221858Z 12007KT 21/15 A3002 RMK A01 T02070152  RH  071%=      5-min Rain = 0
KSW1 221859Z 13007KT 21/15 A3002 RMK A01 T02060152  RH  071%=      5-min Rain = 0
KSW1 221900Z 13008KT 21/15 A3002 RMK A01 T02060152  RH  071%=      5-min Rain = 0
KSW1 221901Z 12009KT 21/15 A3002 RMK A01 T02060153  RH  071%=      5-min Rain = 0
KSW1 221902Z 13009KT 21/15 A3002 RMK A01 T02060152  RH  071%=      5-min Rain = 0
KSW1 221903Z 14007KT 21/15 A3002 RMK A01 T02060152  RH  071%=      5-min Rain = 0
KSW1 221904Z 12008KT 21/15 A3002 RMK A01 T02060153  RH  072%=      5-min Rain = 0
KSW1 221905Z 11008KT 21/15 A3002 RMK A01 T02070152  RH  071%=      5-min Rain = 0
KSW1 221906Z 11007KT 21/15 A3002 RMK A01 T02070153  RH  071%=      5-min Rain = 0
KSW1 221907Z 12006KT 21/15 A3002 RMK A01 T02060153  RH  072%=      5-min Rain = 0
KSW1 221908Z 10008KT 21/15 A3002 RMK A01 T02060154  RH  072%=      5-min Rain = 0
KSW1 221909Z 10010KT 21/15 A3002 RMK A01 T02060154  RH  072%=      5-min Rain = 0
KSW1 221910Z 10008KT 21/15 A3002 RMK A01 T02070152  RH  071%=      5-min Rain = 0
KSW1 221911Z 11006KT 21/15 A3002 RMK A01 T02070153  RH  071%=      5-min Rain = 0
KSW1 221912Z 13006KT 21/16 A3002 RMK A01 T02070155  RH  072%=      5-min Rain = 0
KSW1 221913Z 12007KT 21/16 A3002 RMK A01 T02080155  RH  072%=      5-min Rain = 0
KSW1 221914Z 13006KT 21/16 A3002 RMK A01 T02090155  RH  071%=      5-min Rain = 0
KSW1 221915Z 15006KT 21/16 A3002 RMK A01 T02100155  RH  071%=      5-min Rain = 0
KSW1 221916Z 15005KT 21/15 A3002 RMK A01 T02100152  RH  070%=      5-min Rain = 0
KSW1 221917Z 15005KT 21/15 A3002 RMK A01 T02090154  RH  070%=      5-min Rain = 0
KSW1 221918Z 13007KT 21/16 A3002 RMK A01 T02090156  RH  072%=      5-min Rain = 0
KSW1 221919Z 13008KT 21/15 A3002 RMK A01 T02090154  RH  071%=      5-min Rain = 0
KSW1 221920Z 10007KT 21/16 A3002 RMK A01 T02090155  RH  072%=      5-min Rain = 0
KSW1 221921Z 09006KT 21/15 A3002 RMK A01 T02080154  RH  071%=      5-min Rain = 0
KSW1 221922Z 12007KT 21/16 A3002 RMK A01 T02090156  RH  072%=      5-min Rain = 0
KSW1 221923Z 12009KT 21/15 A3002 RMK A01 T02100153  RH  070%=      5-min Rain = 0
KSW1 221924Z 13008KT 21/15 A3002 RMK A01 T02100153  RH  070%=      5-min Rain = 0
KSW1 221925Z 15008KT 21/15 A3002 RMK A01 T02100153  RH  070%=      5-min Rain = 0
KSW1 221926Z 15008KT 21/15 A3002 RMK A01 T02100152  RH  070%=      5-min Rain = 0
KSW1 221927Z 14007KT 21/15 A3002 RMK A01 T02090152  RH  070%=      5-min Rain = 0
KSW1 221928Z 13008KT 21/15 A3001 RMK A01 T02090153  RH  070%=      5-min Rain = 0
KSW1 221929Z 13008KT 21/15 A3001 RMK A01 T02090152  RH  070%=      5-min Rain = 0
KSW1 221930Z 11007KT 21/15 A3001 RMK A01 T02080154  RH  071%=      5-min Rain = 0
KSW1 221931Z 12006KT 21/16 A3001 RMK A01 T02090156  RH  072%=      5-min Rain = 0
KSW1 221932Z 12009KT 21/15 A3002 RMK A01 T02100154  RH  070%=      5-min Rain = 0
KSW1 221933Z 11008KT 21/15 A3002 RMK A01 T02110154  RH  070%=      5-min Rain = 0
KSW1 221934Z 11008KT 21/15 A3002 RMK A01 T02100153  RH  070%=      5-min Rain = 0
KSW1 221935Z 12007KT 21/15 A3002 RMK A01 T02090154  RH  071%=      5-min Rain = 0
KSW1 221936Z 12008KT 21/15 A3002 RMK A01 T02090154  RH  071%=      5-min Rain = 0
KSW1 221937Z 13009KT 21/15 A3002 RMK A01 T02080154  RH  071%=      5-min Rain = 0
KSW1 221938Z 12008KT 21/15 A3002 RMK A01 T02080154  RH  071%=      5-min Rain = 0
KSW1 221939Z 10009KT 21/15 A3002 RMK A01 T02080153  RH  071%=      5-min Rain = 0
KSW1 221940Z 12007KT 21/15 A3002 RMK A01 T02080154  RH  071%=      5-min Rain = 0
KSW1 221941Z 13008KT 21/15 A3002 RMK A01 T02090154  RH  071%=      5-min Rain = 0
KSW1 221942Z 11006KT 21/15 A3002 RMK A01 T02090153  RH  070%=      5-min Rain = 0
KSW1 221943Z 11006KT 21/15 A3002 RMK A01 T02090153  RH  070%=      5-min Rain = 0
KSW1 221944Z 10005KT 21/15 A3002 RMK A01 T02080154  RH  071%=      5-min Rain = 0
KSW1 221945Z 10005KT 21/15 A3002 RMK A01 T02080154  RH  071%=      5-min Rain = 0
KSW1 221946Z 11005KT 21/15 A3002 RMK A01 T02080154  RH  071%=      5-min Rain = 0
KSW1 221947Z 12005KT 21/15 A3002 RMK A01 T02090154  RH  071%=      5-min Rain = 0
KSW1 221948Z 13006KT 21/16 A3002 RMK A01 T02090156  RH  072%=      5-min Rain = 0
KSW1 221949Z 13007KT 21/15 A3002 RMK A01 T02100153  RH  070%=      5-min Rain = 0
KSW1 221950Z 12005KT 21/15 A3003 RMK A01 T02100153  RH  070%=      5-min Rain = 0
KSW1 221951Z 13005KT 21/16 A3003 RMK A01 T02090155  RH  071%=      5-min Rain = 0
KSW1 221952Z 13006KT 21/16 A3003 RMK A01 T02100156  RH  071%=      5-min Rain = 0
KSW1 221953Z 17004KT 21/16 A3003 RMK A01 T02110156  RH  071%=      5-min Rain = 0
KSW1 221954Z 16004KT 21/15 A3003 RMK A01 T02110153  RH  069%=      5-min Rain = 0
KSW1 221955Z 16003KT 21/15 A3003 RMK A01 T02100154  RH  071%=      5-min Rain = 0
KSW1 221956Z 14003KT 21/16 A3003 RMK A01 T02100156  RH  071%=      5-min Rain = 0
KSW1 221957Z 12005KT 21/16 A3003 RMK A01 T02100156  RH  071%=      5-min Rain = 0
KSW1 221958Z 14006KT 21/16 A3003 RMK A01 T02100156  RH  071%=      5-min Rain = 0
KSW1 221959Z 13005KT 21/16 A3003 RMK A01 T02110156  RH  071%=      5-min Rain = 0
KSW1 222000Z 12004KT 21/16 A3003 RMK A01 T02110157  RH  071%=      5-min Rain = 0
KSW1 222001Z 12007KT 21/16 A3003 RMK A01 T02110155  RH  071%=      5-min Rain = 0
KSW1 222002Z 13005KT 21/16 A3003 RMK A01 T02110156  RH  071%=      5-min Rain = 0
KSW1 222003Z 14004KT 21/16 A3003 RMK A01 T02100156  RH  071%=      5-min Rain = 0
KSW1 222004Z 14004KT 21/16 A3003 RMK A01 T02110155  RH  070%=      5-min Rain = 0
KSW1 222005Z 13003KT 21/15 A3003 RMK A01 T02100154  RH  070%=      5-min Rain = 0
KSW1 222006Z 12004KT 21/16 A3003 RMK A01 T02090157  RH  072%=      5-min Rain = 0
KSW1 222007Z 12004KT 21/16 A3003 RMK A01 T02100157  RH  072%=      5-min Rain = 0
KSW1 222008Z 11004KT 21/16 A3003 RMK A01 T02100156  RH  071%=      5-min Rain = 0
KSW1 222009Z 11004KT 21/16 A3003 RMK A01 T02100157  RH  072%=      5-min Rain = 0
KSW1 222010Z 14003KT 21/16 A3003 RMK A01 T02100157  RH  072%=      5-min Rain = 0
KSW1 222011Z 15005KT 21/15 A3003 RMK A01 T02110153  RH  070%=      5-min Rain = 0
KSW1 222012Z 15006KT 21/16 A3003 RMK A01 T02110155  RH  070%=      5-min Rain = 0
KSW1 222013Z 15006KT 21/16 A3003 RMK A01 T02110155  RH  070%=      5-min Rain = 0
KSW1 222014Z 14005KT 21/15 A3003 RMK A01 T02110154  RH  070%=      5-min Rain = 0
KSW1 222015Z 16005KT 21/16 A3003 RMK A01 T02120155  RH  070%=      5-min Rain = 0
KSW1 222016Z 14007KT 21/16 A3003 RMK A01 T02120157  RH  071%=      5-min Rain = 0
KSW1 222017Z 13006KT 21/16 A3003 RMK A01 T02130155  RH  070%=      5-min Rain = 0
KSW1 222018Z 14004KT 21/16 A3002 RMK A01 T02130155  RH  070%=      5-min Rain = 0
KSW1 222019Z 14006KT 21/16 A3002 RMK A01 T02120155  RH  070%=      5-min Rain = 0
KSW1 222020Z 14005KT 21/16 A3002 RMK A01 T02120156  RH  071%=      5-min Rain = 0
KSW1 222021Z 14004KT 21/16 A3002 RMK A01 T02120156  RH  070%=      5-min Rain = 0
KSW1 222022Z 14004KT 21/15 A3002 RMK A01 T02120154  RH  070%=      5-min Rain = 0
KSW1 222023Z 11006KT 21/16 A3002 RMK A01 T02110156  RH  071%=      5-min Rain = 0
KSW1 222024Z 10006KT 21/16 A3002 RMK A01 T02110156  RH  071%=      5-min Rain = 0
KSW1 222025Z 10006KT 21/16 A3002 RMK A01 T02110157  RH  071%=      5-min Rain = 0
KSW1 222026Z 12007KT 21/16 A3002 RMK A01 T02120159  RH  072%=      5-min Rain = 0
KSW1 222027Z 13006KT 21/16 A3001 RMK A01 T02130156  RH  070%=      5-min Rain = 0
KSW1 222028Z 11006KT 21/16 A3001 RMK A01 T02130156  RH  070%=      5-min Rain = 0
KSW1 222029Z 10005KT 21/16 A3001 RMK A01 T02120155  RH  070%=      5-min Rain = 0
KSW1 222030Z 10007KT 21/16 A3001 RMK A01 T02120157  RH  071%=      5-min Rain = 0
KSW1 222031Z 09006KT 21/16 A3001 RMK A01 T02120158  RH  071%=      5-min Rain = 0
KSW1 222032Z 08008KT 21/16 A3001 RMK A01 T02130158  RH  071%=      5-min Rain = 0
KSW1 222033Z 08007KT 21/16 A3001 RMK A01 T02130159  RH  071%=      5-min Rain = 0
KSW1 222034Z 08008KT 21/16 A3001 RMK A01 T02140159  RH  071%=      5-min Rain = 0
KSW1 222035Z 08007KT 21/16 A3001 RMK A01 T02140158  RH  070%=      5-min Rain = 0
KSW1 222036Z 09006KT 21/16 A3001 RMK A01 T02140158  RH  070%=      5-min Rain = 0
KSW1 222037Z 09005KT 21/16 A3001 RMK A01 T02140158  RH  070%=      5-min Rain = 0
KSW1 222038Z 10006KT 21/16 A30 RMK A01 T02140159  RH  071%=      5-min Rain = 0
KSW1 222039Z 09006KT 21/16 A3001 RMK A01 T02140157  RH  070%=      5-min Rain = 0
KSW1 222040Z 10006KT 21/16 A3001 RMK A01 T02140157  RH  070%=      5-min Rain = 0
KSW1 222041Z 11006KT 21/16 A30 RMK A01 T02140157  RH  070%=      5-min Rain = 0
KSW1 222042Z 11005KT 21/16 A30 RMK A01 T02140157  RH  070%=      5-min Rain = 0
KSW1 222043Z 09005KT 21/16 A30 RMK A01 T02140158  RH  070%=      5-min Rain = 0
KSW1 222044Z 09006KT 21/16 A30 RMK A01 T02140159  RH  071%=      5-min Rain = 0
KSW1 222045Z 09007KT 22/16 A30 RMK A01 T02150159  RH  070%=      5-min Rain = 0
KSW1 222046Z 07008KT 22/16 A30 RMK A01 T02160159  RH  070%=      5-min Rain = 0
KSW1 222047Z 07007KT 22/16 A30 RMK A01 T02160159  RH  070%=      5-min Rain = 0
KSW1 222048Z 09008KT 22/16 A30 RMK A01 T02160160  RH  070%=      5-min Rain = 0
KSW1 222049Z 08007KT 22/16 A30 RMK A01 T02160158  RH  069%=      5-min Rain = 0
KSW1 222050Z 08006KT 22/16 A30 RMK A01 T02160157  RH  069%=      5-min Rain = 0
KSW1 222051Z 09006KT 22/16 A30 RMK A01 T02160158  RH  070%=      5-min Rain = 0
KSW1 222052Z 08006KT 22/16 A30 RMK A01 T02160158  RH  070%=      5-min Rain = 0
KSW1 222053Z 09005KT 22/16 A30 RMK A01 T02160158  RH  069%=      5-min Rain = 0
KSW1 222054Z 09005KT 22/16 A30 RMK A01 T02160157  RH  069%=      5-min Rain = 0
KSW1 222055Z 09004KT 22/16 A30 RMK A01 T02150156  RH  069%=      5-min Rain = 0
KSW1 222056Z 08005KT 22/16 A30 RMK A01 T02150158  RH  070%=      5-min Rain = 0
KSW1 222057Z 08007KT 22/16 A30 RMK A01 T02160159  RH  070%=      5-min Rain = 0
KSW1 222058Z 10007KT 22/16 A30 RMK A01 T02170159  RH  069%=      5-min Rain = 0
KSW1 222059Z 09006KT 22/16 A30 RMK A01 T02180160  RH  070%=      5-min Rain = 0
KSW1 222100Z 10006KT 22/16 A30 RMK A01 T02180159  RH  069%=      5-min Rain = 0
KSW1 222101Z 09005KT 22/16 A30 RMK A01 T02180157  RH  068%=      5-min Rain = 0
KSW1 222102Z 08005KT 22/16 A30 RMK A01 T02180159  RH  069%=      5-min Rain = 0
KSW1 222103Z 08005KT 22/16 A30 RMK A01 T02180158  RH  069%=      5-min Rain = 0
KSW1 222104Z 09006KT 22/16 A30 RMK A01 T02170159  RH  070%=      5-min Rain = 0
KSW1 222105Z 08007KT 22/16 A30 RMK A01 T02170159  RH  069%=      5-min Rain = 0
KSW1 222106Z 07007KT 22/16 A30 RMK A01 T02180159  RH  069%=      5-min Rain = 0
KSW1 222107Z 07006KT 22/16 A30 RMK A01 T02180158  RH  069%=      5-min Rain = 0
KSW1 222108Z 07006KT 22/16 A30 RMK A01 T02160158  RH  069%=      5-min Rain = 0
KSW1 222109Z 08006KT 22/16 A30 RMK A01 T02160159  RH  070%=      5-min Rain = 0
KSW1 222110Z 07005KT 22/16 A30 RMK A01 T02160159  RH  070%=      5-min Rain = 0
KSW1 222111Z 08006KT 22/16 A30 RMK A01 T02160161  RH  071%=      5-min Rain = 0
KSW1 222112Z 08006KT 22/16 A30 RMK A01 T02160160  RH  070%=      5-min Rain = 0
KSW1 222113Z 07006KT 22/16 A30 RMK A01 T02170158  RH  069%=      5-min Rain = 0
KSW1 222114Z 08005KT 22/16 A30 RMK A01 T02170158  RH  069%=      5-min Rain = 0
KSW1 222115Z 08005KT 22/16 A30 RMK A01 T02160158  RH  070%=      5-min Rain = 0
KSW1 222116Z 07006KT 22/16 A30 RMK A01 T02160161  RH  071%=      5-min Rain = 0
KSW1 222117Z 08006KT 22/16 A30 RMK A01 T02170160  RH  070%=      5-min Rain = 0
KSW1 222118Z 08005KT 22/16 A30 RMK A01 T02170160  RH  070%=      5-min Rain = 0
KSW1 222119Z 08004KT 22/16 A30 RMK A01 T02180161  RH  070%=      5-min Rain = 0
KSW1 222120Z 06003KT 22/16 A30 RMK A01 T02180160  RH  070%=      5-min Rain = 0
KSW1 222121Z 06004KT 22/16 A30 RMK A01 T02180162  RH  070%=      5-min Rain = 0
KSW1 222122Z 06006KT 22/16 A30 RMK A01 T02180163  RH  071%=      5-min Rain = 0
KSW1 222123Z 10006KT 22/16 A30 RMK A01 T02190161  RH  070%=      5-min Rain = 0
KSW1 222124Z 10004KT 22/16 A30 RMK A01 T02190158  RH  068%=      5-min Rain = 0
KSW1 222125Z 10004KT 22/16 A30 RMK A01 T02180160  RH  070%=      5-min Rain = 0
KSW1 222126Z 10005KT 22/16 A30 RMK A01 T02180159  RH  069%=      5-min Rain = 0
KSW1 222127Z 08005KT 22/16 A30 RMK A01 T02190160  RH  069%=      5-min Rain = 0
KSW1 222128Z 08005KT 22/16 A30 RMK A01 T02190160  RH  070%=      5-min Rain = 0
KSW1 222129Z 08005KT 22/16 A30 RMK A01 T02190159  RH  069%=      5-min Rain = 0
KSW1 222130Z 08006KT 22/16 A30 RMK A01 T02190161  RH  070%=      5-min Rain = 0
KSW1 222131Z 08005KT 22/16 A30 RMK A01 T02180160  RH  069%=      5-min Rain = 0
KSW1 222132Z 09005KT 22/16 A30 RMK A01 T02180160  RH  069%=      5-min Rain = 0
KSW1 222133Z 09004KT 22/16 A30 RMK A01 T02180159  RH  069%=      5-min Rain = 0
KSW1 222134Z 06004KT 22/16 A30 RMK A01 T02180160  RH  070%=      5-min Rain = 0
KSW1 222135Z 06003KT 22/16 A30 RMK A01 T02180163  RH  071%=      5-min Rain = 0
KSW1 222136Z 04004KT 22/16 A30 RMK A01 T02180162  RH  070%=      5-min Rain = 0
KSW1 222137Z 05005KT 22/16 A30 RMK A01 T02180163  RH  071%=      5-min Rain = 0
KSW1 222138Z 05005KT 22/16 A30 RMK A01 T02190164  RH  071%=      5-min Rain = 0
KSW1 222139Z 05005KT 22/16 A30 RMK A01 T02190163  RH  071%=      5-min Rain = 0
KSW1 222140Z 05005KT 22/16 A30 RMK A01 T02190164  RH  071%=      5-min Rain = 0
KSW1 222141Z 05005KT 22/16 A30 RMK A01 T02190162  RH  070%=      5-min Rain = 0
KSW1 222142Z 04004KT 22/16 A30 RMK A01 T02190163  RH  070%=      5-min Rain = 0
KSW1 222143Z 04005KT 22/16 A30 RMK A01 T02190164  RH  071%=      5-min Rain = 0
KSW1 222144Z 04007KT 22/16 A2999 RMK A01 T02190163  RH  070%=      5-min Rain = 0
KSW1 222145Z 03007KT 22/16 A2999 RMK A01 T02190162  RH  070%=      5-min Rain = 0
KSW1 222146Z 03007KT 22/16 A2999 RMK A01 T02190161  RH  070%=      5-min Rain = 0
KSW1 222147Z 04007KT 22/16 A2999 RMK A01 T02190162  RH  070%=      5-min Rain = 0
KSW1 222148Z 05006KT 22/16 A2999 RMK A01 T02190164  RH  071%=      5-min Rain = 0
KSW1 222149Z 05007KT 22/16 A2999 RMK A01 T02200164  RH  071%=      5-min Rain = 0
KSW1 222150Z 05007KT 22/16 A2999 RMK A01 T02210164  RH  070%=      5-min Rain = 0
KSW1 222151Z 04007KT 22/16 A2999 RMK A01 T02210162  RH  069%=      5-min Rain = 0
KSW1 222152Z 04007KT 22/16 A2999 RMK A01 T02210163  RH  069%=      5-min Rain = 0
KSW1 222153Z 04007KT 22/16 A2999 RMK A01 T02210163  RH  069%=      5-min Rain = 0
KSW1 222154Z 04006KT 22/16 A2999 RMK A01 T02220162  RH  069%=      5-min Rain = 0
KSW1 222155Z 04005KT 22/17 A2999 RMK A01 T02220165  RH  070%=      5-min Rain = 0
KSW1 222156Z 04005KT 22/16 A2999 RMK A01 T02230161  RH  068%=      5-min Rain = 0
KSW1 222157Z 04006KT 22/16 A2999 RMK A01 T02230162  RH  069%=      5-min Rain = 0
KSW1 222158Z 05007KT 22/16 A2999 RMK A01 T02230163  RH  069%=      5-min Rain = 0
KSW1 222159Z 05007KT 22/16 A2999 RMK A01 T02230163  RH  069%=      5-min Rain = 0
KSW1 222200Z 05008KT 22/16 A2999 RMK A01 T02220164  RH  069%=      5-min Rain = 0
KSW1 222201Z 04007KT 22/16 A2999 RMK A01 T02220163  RH  069%=      5-min Rain = 0
KSW1 222202Z 03006KT 22/16 A2999 RMK A01 T02220161  RH  069%=      5-min Rain = 0
KSW1 222203Z 04006KT 22/17 A2999 RMK A01 T02220165  RH  070%=      5-min Rain = 0
KSW1 222204Z 04006KT 22/16 A2999 RMK A01 T02220164  RH  069%=      5-min Rain = 0
KSW1 222205Z 04005KT 22/16 A2999 RMK A01 T02230164  RH  069%=      5-min Rain = 0
KSW1 222206Z 05007KT 22/17 A2999 RMK A01 T02230165  RH  070%=      5-min Rain = 0
KSW1 222207Z 06006KT 22/17 A2999 RMK A01 T02240165  RH  069%=      5-min Rain = 0
KSW1 222208Z 06007KT 23/17 A2999 RMK A01 T02250167  RH  070%=      5-min Rain = 0
KSW1 222209Z 08008KT 23/17 A2999 RMK A01 T02260165  RH  068%=      5-min Rain = 0
KSW1 222210Z 09006KT 23/16 A2999 RMK A01 T02270163  RH  067%=      5-min Rain = 0
KSW1 222211Z 10007KT 23/17 A2999 RMK A01 T02270168  RH  069%=      5-min Rain = 0
KSW1 222212Z 09005KT 23/17 A2999 RMK A01 T02280167  RH  069%=      5-min Rain = 0
KSW1 222213Z 10006KT 23/17 A2999 RMK A01 T02280167  RH  068%=      5-min Rain = 0
KSW1 222214Z 10006KT 23/17 A2999 RMK A01 T02280165  RH  068%=      5-min Rain = 0
KSW1 222215Z 12004KT 23/17 A2999 RMK A01 T02270166  RH  069%=      5-min Rain = 0
KSW1 222216Z 14007KT 23/16 A2999 RMK A01 T02270161  RH  067%=      5-min Rain = 0
KSW1 222217Z 12008KT 23/16 A2999 RMK A01 T02280159  RH  065%=      5-min Rain = 0
KSW1 222218Z 13007KT 23/16 A2999 RMK A01 T02300158  RH  064%=      5-min Rain = 0
KSW1 222219Z 12007KT 23/16 A2999 RMK A01 T02310159  RH  064%=      5-min Rain = 0
KSW1 222220Z 12007KT 23/16 A2999 RMK A01 T02310159  RH  064%=      5-min Rain = 0
KSW1 222221Z 11009KT 23/16 A2999 RMK A01 T02320159  RH  063%=      5-min Rain = 0
KSW1 222222Z 12013KT 23/16 A2998 RMK A01 T02310155  RH  062%=      5-min Rain = 0
KSW1 222223Z 12012KT 23/15 A2998 RMK A01 T02290153  RH  062%=      5-min Rain = 0
KSW1 222224Z 13009KT 23/15 A2998 RMK A01 T02280154  RH  063%=      5-min Rain = 0
KSW1 222225Z 12010KT 23/15 A2998 RMK A01 T02280154  RH  063%=      5-min Rain = 0
KSW1 222226Z 12012KT 23/15 A2998 RMK A01 T02280154  RH  063%=      5-min Rain = 0
KSW1 222227Z 12012KT 23/15 A2998 RMK A01 T02280153  RH  063%=      5-min Rain = 0
KSW1 222228Z 12009KT 23/15 A2998 RMK A01 T02280154  RH  063%=      5-min Rain = 0
KSW1 222229Z 12012KT 23/16 A2998 RMK A01 T02280155  RH  064%=      5-min Rain = 0
KSW1 222230Z 12012KT 23/15 A2998 RMK A01 T02280153  RH  063%=      5-min Rain = 0
KSW1 222231Z 12012KT 23/15 A2998 RMK A01 T02280153  RH  063%=      5-min Rain = 0
KSW1 222232Z 12010KT 23/16 A2998 RMK A01 T02280155  RH  063%=      5-min Rain = 0
KSW1 222233Z 12010KT 23/16 A2998 RMK A01 T02280156  RH  064%=      5-min Rain = 0
KSW1 222234Z 12011KT 23/15 A2997 RMK A01 T02280154  RH  063%=      5-min Rain = 0
KSW1 222235Z 10011KT 23/16 A2997 RMK A01 T02280156  RH  064%=      5-min Rain = 0
KSW1 222236Z 10013KT 23/16 A2997 RMK A01 T02280155  RH  063%=      5-min Rain = 0
KSW1 222237Z 10009KT 23/16 A2997 RMK A01 T02280155  RH  064%=      5-min Rain = 0
KSW1 222238Z 11010KT 23/16 A2997 RMK A01 T02280155  RH  063%=      5-min Rain = 0
KSW1 222239Z 11008KT 23/16 A2997 RMK A01 T02280155  RH  064%=      5-min Rain = 0
KSW1 222240Z 12008KT 23/16 A2997 RMK A01 T02270155  RH  064%=      5-min Rain = 0
KSW1 222241Z 10008KT 23/16 A2997 RMK A01 T02280155  RH  064%=      5-min Rain = 0
KSW1 222242Z 10009KT 23/16 A2997 RMK A01 T02280156  RH  064%=      5-min Rain = 0
KSW1 222243Z 11012KT 23/15 A2997 RMK A01 T02280154  RH  063%=      5-min Rain = 0
KSW1 222244Z 11011KT 23/16 A2997 RMK A01 T02280155  RH  063%=      5-min Rain = 0
KSW1 222245Z 12010KT 23/15 A2997 RMK A01 T02270154  RH  063%=      5-min Rain = 0
KSW1 222246Z 11011KT 23/16 A2997 RMK A01 T02270155  RH  064%=      5-min Rain = 0
KSW1 222247Z 12008KT 23/15 A2997 RMK A01 T02260154  RH  064%=      5-min Rain = 0
KSW1 222248Z 12008KT 23/16 A2998 RMK A01 T02260155  RH  064%=      5-min Rain = 0
KSW1 222249Z 13007KT 23/16 A2998 RMK A01 T02260157  RH  065%=      5-min Rain = 0
KSW1 222250Z 14008KT 23/16 A2998 RMK A01 T02260156  RH  065%=      5-min Rain = 0
KSW1 222251Z 14008KT 23/16 A2998 RMK A01 T02260156  RH  065%=      5-min Rain = 0
KSW1 222252Z 13007KT 23/16 A2998 RMK A01 T02260157  RH  065%=      5-min Rain = 0
KSW1 222253Z 13010KT 23/16 A2999 RMK A01 T02260157  RH  065%=      5-min Rain = 0
KSW1 222254Z 13010KT 23/15 A2999 RMK A01 T02250154  RH  064%=      5-min Rain = 0
KSW1 222255Z 14009KT 23/15 A2999 RMK A01 T02250154  RH  064%=      5-min Rain = 0
KSW1 222256Z 15012KT 23/15 A2999 RMK A01 T02250153  RH  064%=      5-min Rain = 0
KSW1 222257Z 14013KT 22/15 A30 RMK A01 T02240150  RH  063%=      5-min Rain = 0
KSW1 222258Z 14012KT 22/15 A30 RMK A01 T02240149  RH  062%=      5-min Rain = 0
KSW1 222259Z 14013KT 22/15 A30 RMK A01 T02230147  RH  062%=      5-min Rain = 0
KSW1 222300Z 14012KT 22/15 A30 RMK A01 T02230147  RH  062%=      5-min Rain = 0
KSW1 222301Z 14013KT 22/15 A30 RMK A01 T02230147  RH  062%=      5-min Rain = 0
KSW1 222302Z 15010KT 22/15 A30 RMK A01 T02230146  RH  062%=      5-min Rain = 0
KSW1 222303Z 15010KT 22/15 A30 RMK A01 T02230148  RH  062%=      5-min Rain = 0
KSW1 222304Z 14012KT 22/15 A30 RMK A01 T02230145  RH  061%=      5-min Rain = 0
KSW1 222305Z 14010KT 22/15 A30 RMK A01 T02230145  RH  061%=      5-min Rain = 0
KSW1 222306Z 14010KT 22/15 A30 RMK A01 T02230146  RH  062%=      5-min Rain = 0
KSW1 222307Z 14010KT 22/15 A30 RMK A01 T02230145  RH  061%=      5-min Rain = 0
KSW1 222308Z 14007KT 22/15 A30 RMK A01 T02230145  RH  062%=      5-min Rain = 0
KSW1 222309Z 15006KT 22/15 A3001 RMK A01 T02230147  RH  062%=      5-min Rain = 0
KSW1 222310Z 15007KT 22/15 A3001 RMK A01 T02230149  RH  063%=      5-min Rain = 0
KSW1 222311Z 15006KT 22/15 A3001 RMK A01 T02240147  RH  062%=      5-min Rain = 0
KSW1 222312Z 14007KT 22/15 A3001 RMK A01 T02240148  RH  062%=      5-min Rain = 0
KSW1 222313Z 15006KT 22/15 A3001 RMK A01 T02240147  RH  062%=      5-min Rain = 0
KSW1 222314Z 17007KT 22/15 A3001 RMK A01 T02240148  RH  062%=      5-min Rain = 0
KSW1 222315Z 17007KT 22/15 A3001 RMK A01 T02240148  RH  062%=      5-min Rain = 0
KSW1 222316Z 16008KT 22/15 A3001 RMK A01 T02240146  RH  061%=      5-min Rain = 0
KSW1 222317Z 15007KT 23/15 A3002 RMK A01 T02250146  RH  061%=      5-min Rain = 0
KSW1 222318Z 15008KT 22/15 A3002 RMK A01 T02240146  RH  061%=      5-min Rain = 0
KSW1 222319Z 15007KT 22/15 A3002 RMK A01 T02240146  RH  061%=      5-min Rain = 0
KSW1 222320Z 16006KT 23/15 A3002 RMK A01 T02250148  RH  062%=      5-min Rain = 0
KSW1 222321Z 17006KT 22/15 A3002 RMK A01 T02240147  RH  062%=      5-min Rain = 0
KSW1 222322Z 17007KT 22/15 A3002 RMK A01 T02240149  RH  062%=      5-min Rain = 0
KSW1 222323Z 16008KT 22/15 A3002 RMK A01 T02240147  RH  062%=      5-min Rain = 0
KSW1 222324Z 15010KT 22/15 A3002 RMK A01 T02240145  RH  061%=      5-min Rain = 0
KSW1 222325Z 15009KT 22/14 A3002 RMK A01 T02240144  RH  061%=      5-min Rain = 0
KSW1 222326Z 16009KT 22/15 A3001 RMK A01 T02240145  RH  061%=      5-min Rain = 0
KSW1 222327Z 15009KT 22/15 A3001 RMK A01 T02230146  RH  061%=      5-min Rain = 0
KSW1 222328Z 15009KT 22/15 A3001 RMK A01 T02230146  RH  061%=      5-min Rain = 0
KSW1 222329Z 15010KT 22/15 A3001 RMK A01 T02230145  RH  061%=      5-min Rain = 0
KSW1 222330Z 16010KT 22/14 A3001 RMK A01 T02230144  RH  061%=      5-min Rain = 0
KSW1 222331Z 15008KT 22/14 A3001 RMK A01 T02230144  RH  061%=      5-min Rain = 0
KSW1 222332Z 15008KT 22/14 A3001 RMK A01 T02230144  RH  061%=      5-min Rain = 0
KSW1 222333Z 15007KT 22/14 A3001 RMK A01 T02220144  RH  061%=      5-min Rain = 0
KSW1 222334Z 15007KT 22/14 A30 RMK A01 T02220144  RH  061%=      5-min Rain = 0
KSW1 222335Z 15007KT 22/15 A30 RMK A01 T02220145  RH  062%=      5-min Rain = 0
KSW1 222336Z 14006KT 22/15 A30 RMK A01 T02210146  RH  062%=      5-min Rain = 0
KSW1 222337Z 14006KT 22/15 A30 RMK A01 T02210145  RH  062%=      5-min Rain = 0
KSW1 222338Z 14006KT 22/15 A30 RMK A01 T02210145  RH  062%=      5-min Rain = 0
KSW1 222339Z 14005KT 22/15 A30 RMK A01 T02200145  RH  062%=      5-min Rain = 0
KSW1 222340Z 14005KT 22/15 A30 RMK A01 T02200146  RH  063%=      5-min Rain = 0
KSW1 222341Z 13005KT 22/15 A30 RMK A01 T02200149  RH  064%=      5-min Rain = 0
KSW1 222342Z 13007KT 22/15 A30 RMK A01 T02190147  RH  063%=      5-min Rain = 0
KSW1 222343Z 14007KT 22/15 A30 RMK A01 T02190146  RH  063%=      5-min Rain = 0
KSW1 222344Z 14008KT 22/14 A30 RMK A01 T02190143  RH  062%=      5-min Rain = 0
KSW1 222345Z 15007KT 22/14 A30 RMK A01 T02190144  RH  062%=      5-min Rain = 0
KSW1 222346Z 14008KT 22/14 A30 RMK A01 T02190142  RH  062%=      5-min Rain = 0
KSW1 222347Z 14006KT 22/14 A30 RMK A01 T02180142  RH  062%=      5-min Rain = 0
KSW1 222348Z 13006KT 22/14 A30 RMK A01 T02180144  RH  063%=      5-min Rain = 0
KSW1 222349Z 14008KT 22/14 A30 RMK A01 T02180143  RH  062%=      5-min Rain = 0
KSW1 222350Z 14007KT 22/14 A30 RMK A01 T02180143  RH  062%=      5-min Rain = 0
KSW1 222351Z 13006KT 22/14 A30 RMK A01 T02170143  RH  063%=      5-min Rain = 0
KSW1 222352Z 13006KT 22/14 A30 RMK A01 T02180144  RH  063%=      5-min Rain = 0
KSW1 222353Z 13006KT 22/15 A30 RMK A01 T02170145  RH  063%=      5-min Rain = 0
KSW1 222354Z 14006KT 22/15 A30 RMK A01 T02170147  RH  064%=      5-min Rain = 0
KSW1 222355Z 14005KT 22/15 A30 RMK A01 T02170146  RH  064%=      5-min Rain = 0
KSW1 222356Z 15006KT 22/15 A30 RMK A01 T02160149  RH  065%=      5-min Rain = 0
KSW1 222357Z 15005KT 22/15 A30 RMK A01 T02160146  RH  065%=      5-min Rain = 0
KSW1 222358Z 14006KT 22/15 A30 RMK A01 T02160147  RH  065%=      5-min Rain = 0
KSW1 222359Z 15005KT 22/15 A30 RMK A01 T02160147  RH  065%=      5-min Rain = 0
KSW1 230000Z 15006KT 22/15 A30 RMK A01 T02150147  RH  065%=      5-min Rain = 0
KSW1 230001Z 15006KT 22/15 A30 RMK A01 T02150147  RH  065%=      5-min Rain = 0
KSW1 230002Z 15006KT 22/15 A30 RMK A01 T02150148  RH  065%=      5-min Rain = 0
KSW1 230003Z 15006KT 22/15 A30 RMK A01 T02150147  RH  065%=      5-min Rain = 0
KSW1 230004Z 15008KT 22/14 A30 RMK A01 T02150144  RH  064%=      5-min Rain = 0
KSW1 230005Z 14007KT 22/14 A30 RMK A01 T02150142  RH  063%=      5-min Rain = 0
KSW1 230006Z 14006KT 22/14 A30 RMK A01 T02150143  RH  063%=      5-min Rain = 0
KSW1 230007Z 13006KT 22/15 A30 RMK A01 T02160145  RH  064%=      5-min Rain = 0
KSW1 230008Z 14004KT 22/15 A30 RMK A01 T02150147  RH  065%=      5-min Rain = 0
KSW1 230009Z 14005KT 22/15 A2999 RMK A01 T02150147  RH  065%=      5-min Rain = 0
KSW1 230010Z 13006KT 21/15 A2999 RMK A01 T02140148  RH  066%=      5-min Rain = 0
KSW1 230011Z 14006KT 21/15 A2999 RMK A01 T02140145  RH  065%=      5-min Rain = 0
KSW1 230012Z 13006KT 21/14 A2999 RMK A01 T02140144  RH  064%=      5-min Rain = 0
KSW1 230013Z 13005KT 21/15 A2999 RMK A01 T02140146  RH  065%=      5-min Rain = 0
KSW1 230014Z 13004KT 21/15 A2999 RMK A01 T02140146  RH  065%=      5-min Rain = 0
KSW1 230015Z 12005KT 21/15 A2999 RMK A01 T02130147  RH  066%=      5-min Rain = 0
KSW1 230016Z 12005KT 21/15 A2999 RMK A01 T02130146  RH  066%=      5-min Rain = 0
KSW1 230017Z 13005KT 21/15 A2999 RMK A01 T02130145  RH  065%=      5-min Rain = 0
KSW1 230018Z 12005KT 21/14 A2998 RMK A01 T02130141  RH  064%=      5-min Rain = 0
KSW1 230019Z 11004KT 21/14 A2998 RMK A01 T02140144  RH  064%=      5-min Rain = 0
KSW1 230020Z 11004KT 21/15 A2998 RMK A01 T02140146  RH  065%=      5-min Rain = 0
KSW1 230021Z 11005KT 21/15 A2998 RMK A01 T02130145  RH  065%=      5-min Rain = 0
KSW1 230022Z 11004KT 21/15 A2998 RMK A01 T02130145  RH  065%=      5-min Rain = 0
KSW1 230023Z 10004KT 21/15 A2998 RMK A01 T02130145  RH  065%=      5-min Rain = 0
KSW1 230024Z 11005KT 21/15 A2998 RMK A01 T02120146  RH  066%=      5-min Rain = 0
KSW1 230025Z 11006KT 21/15 A2998 RMK A01 T02110146  RH  066%=      5-min Rain = 0
KSW1 230026Z 10006KT 21/14 A2998 RMK A01 T02110144  RH  065%=      5-min Rain = 0
KSW1 230027Z 10006KT 21/14 A2997 RMK A01 T02110143  RH  065%=      5-min Rain = 0
KSW1 230028Z 11005KT 21/14 A2997 RMK A01 T02110144  RH  066%=      5-min Rain = 0
KSW1 230029Z 11005KT 21/14 A2997 RMK A01 T02110144  RH  066%=      5-min Rain = 0
KSW1 230030Z 11005KT 21/15 A2998 RMK A01 T02100145  RH  066%=      5-min Rain = 0
KSW1 230031Z 11005KT 21/15 A2998 RMK A01 T02100145  RH  067%=      5-min Rain = 0
KSW1 230032Z 12005KT 21/15 A2998 RMK A01 T02090146  RH  067%=      5-min Rain = 0
KSW1 230033Z 12005KT 21/15 A2998 RMK A01 T02090145  RH  067%=      5-min Rain = 0
KSW1 230034Z 12005KT 21/15 A2998 RMK A01 T02090145  RH  067%=      5-min Rain = 0
KSW1 230035Z 13005KT 21/15 A2998 RMK A01 T02090145  RH  067%=      5-min Rain = 0
KSW1 230036Z 12005KT 21/15 A2998 RMK A01 T02090146  RH  067%=      5-min Rain = 0
KSW1 230037Z 13005KT 21/15 A2998 RMK A01 T02090145  RH  067%=      5-min Rain = 0
KSW1 230038Z 13004KT 21/15 A2998 RMK A01 T02080145  RH  067%=      5-min Rain = 0
KSW1 230039Z 13005KT 21/15 A2998 RMK A01 T02080146  RH  068%=      5-min Rain = 0
KSW1 230040Z 13004KT 21/15 A2999 RMK A01 T02080146  RH  068%=      5-min Rain = 0
KSW1 230041Z 14004KT 21/15 A2999 RMK A01 T02080146  RH  068%=      5-min Rain = 0
KSW1 230042Z 14004KT 21/15 A2999 RMK A01 T02070145  RH  068%=      5-min Rain = 0
KSW1 230043Z 14004KT 21/15 A2999 RMK A01 T02070145  RH  068%=      5-min Rain = 0
KSW1 230044Z 14004KT 21/15 A2999 RMK A01 T02070146  RH  068%=      5-min Rain = 0
KSW1 230045Z 14004KT 21/14 A2999 RMK A01 T02070144  RH  067%=      5-min Rain = 0
KSW1 230046Z 15005KT 21/14 A2999 RMK A01 T02070144  RH  067%=      5-min Rain = 0
KSW1 230047Z 14005KT 21/14 A2999 RMK A01 T02070144  RH  067%=      5-min Rain = 0
KSW1 230048Z 14005KT 21/14 A2999 RMK A01 T02070143  RH  067%=      5-min Rain = 0
KSW1 230049Z 15005KT 21/14 A30 RMK A01 T02070144  RH  067%=      5-min Rain = 0
KSW1 230050Z 14005KT 21/15 A30 RMK A01 T02080145  RH  067%=      5-min Rain = 0
KSW1 230051Z 14005KT 21/15 A30 RMK A01 T02080145  RH  067%=      5-min Rain = 0
KSW1 230052Z 14006KT 21/15 A30 RMK A01 T02070145  RH  067%=      5-min Rain = 0
KSW1 230053Z 14006KT 21/14 A30 RMK A01 T02070143  RH  067%=      5-min Rain = 0
KSW1 230054Z 14006KT 21/14 A30 RMK A01 T02070143  RH  067%=      5-min Rain = 0
KSW1 230055Z 14005KT 21/14 A30 RMK A01 T02070143  RH  067%=      5-min Rain = 0
KSW1 230056Z 13005KT 21/14 A2999 RMK A01 T02070143  RH  067%=      5-min Rain = 0
KSW1 230057Z 13005KT 21/14 A2999 RMK A01 T02070144  RH  067%=      5-min Rain = 0
KSW1 230058Z 13005KT 21/15 A2999 RMK A01 T02070145  RH  067%=      5-min Rain = 0
KSW1 230059Z 13006KT 21/14 A2999 RMK A01 T02070144  RH  067%=      5-min Rain = 0
KSW1 230100Z 13006KT 21/14 A2999 RMK A01 T02070143  RH  067%=      5-min Rain = 0
KSW1 230101Z 13005KT 21/14 A2999 RMK A01 T02070144  RH  067%=      5-min Rain = 0
KSW1 230102Z 13006KT 21/15 A2999 RMK A01 T02060145  RH  068%=      5-min Rain = 0
KSW1 230103Z 13006KT 21/14 A2999 RMK A01 T02060144  RH  068%=      5-min Rain = 0
KSW1 230104Z 13006KT 21/15 A2999 RMK A01 T02060145  RH  068%=      5-min Rain = 0
KSW1 230105Z 13006KT 21/14 A2999 RMK A01 T02050144  RH  068%=      5-min Rain = 0
KSW1 230106Z 13006KT 21/14 A2999 RMK A01 T02050144  RH  068%=      5-min Rain = 0
KSW1 230107Z 12005KT 21/14 A2999 RMK A01 T02050144  RH  068%=      5-min Rain = 0
KSW1 230108Z 12006KT 21/15 A2999 RMK A01 T02050145  RH  068%=      5-min Rain = 0
KSW1 230109Z 12006KT 21/14 A2999 RMK A01 T02050144  RH  068%=      5-min Rain = 0
KSW1 230110Z 12006KT 21/14 A2999 RMK A01 T02050144  RH  068%=      5-min Rain = 0
KSW1 230111Z 12007KT 21/14 A2999 RMK A01 T02050144  RH  068%=      5-min Rain = 0
KSW1 230112Z 12007KT 21/14 A2999 RMK A01 T02050143  RH  068%=      5-min Rain = 0
KSW1 230113Z 12006KT 21/14 A2999 RMK A01 T02050142  RH  067%=      5-min Rain = 0
KSW1 230114Z 12007KT 21/14 A2998 RMK A01 T02050143  RH  068%=      5-min Rain = 0
KSW1 230115Z 11006KT 20/14 A2998 RMK A01 T02040143  RH  068%=      5-min Rain = 0
KSW1 230116Z 12007KT 20/14 A2998 RMK A01 T02040142  RH  068%=      5-min Rain = 0
KSW1 230117Z 11007KT 20/14 A2998 RMK A01 T02040142  RH  067%=      5-min Rain = 0
KSW1 230118Z 12007KT 20/14 A2998 RMK A01 T02040140  RH  067%=      5-min Rain = 0
KSW1 230119Z 11007KT 20/14 A2998 RMK A01 T02040141  RH  067%=      5-min Rain = 0
KSW1 230120Z 11007KT 20/14 A2998 RMK A01 T02040140  RH  066%=      5-min Rain = 0
KSW1 230121Z 11007KT 20/14 A2998 RMK A01 T02040139  RH  066%=      5-min Rain = 0
KSW1 230122Z 11007KT 20/14 A2998 RMK A01 T02040138  RH  066%=      5-min Rain = 0
KSW1 230123Z 12008KT 20/14 A2998 RMK A01 T02040137  RH  065%=      5-min Rain = 0
KSW1 230124Z 11007KT 20/14 A2998 RMK A01 T02040137  RH  065%=      5-min Rain = 0
KSW1 230125Z 12007KT 20/14 A2998 RMK A01 T02040138  RH  065%=      5-min Rain = 0
KSW1 230126Z 12006KT 20/14 A2998 RMK A01 T02040137  RH  065%=      5-min Rain = 0
KSW1 230127Z 12006KT 20/14 A2998 RMK A01 T02040137  RH  065%=      5-min Rain = 0
KSW1 230128Z 12006KT 20/14 A2998 RMK A01 T02040137  RH  065%=      5-min Rain = 0
KSW1 230129Z 12005KT 20/14 A2998 RMK A01 T02030137  RH  065%=      5-min Rain = 0
KSW1 230130Z 12006KT 20/14 A2999 RMK A01 T02030137  RH  066%=      5-min Rain = 0
KSW1 230131Z 12005KT 20/14 A2999 RMK A01 T02030136  RH  065%=      5-min Rain = 0
KSW1 230132Z 12005KT 20/14 A2999 RMK A01 T02030136  RH  065%=      5-min Rain = 0
KSW1 230133Z 12005KT 20/14 A2999 RMK A01 T02030136  RH  065%=      5-min Rain = 0
KSW1 230134Z 12006KT 20/14 A2999 RMK A01 T02030136  RH  065%=      5-min Rain = 0
KSW1 230135Z 12005KT 20/14 A2999 RMK A01 T02020135  RH  065%=      5-min Rain = 0
KSW1 230136Z 12005KT 20/14 A2999 RMK A01 T02020136  RH  066%=      5-min Rain = 0
KSW1 230137Z 11005KT 20/14 A2999 RMK A01 T02020136  RH  066%=      5-min Rain = 0
KSW1 230138Z 11005KT 20/14 A2999 RMK A01 T02030137  RH  066%=      5-min Rain = 0
KSW1 230139Z 11006KT 20/14 A2999 RMK A01 T02020137  RH  066%=      5-min Rain = 0
KSW1 230140Z 11004KT 20/14 A2999 RMK A01 T02020136  RH  066%=      5-min Rain = 0
KSW1 230141Z 11005KT 20/14 A2999 RMK A01 T02020137  RH  066%=      5-min Rain = 0
KSW1 230142Z 11006KT 20/14 A2999 RMK A01 T02020136  RH  066%=      5-min Rain = 0
KSW1 230143Z 11005KT 20/14 A2999 RMK A01 T02020135  RH  065%=      5-min Rain = 0
KSW1 230144Z 11005KT 20/14 A2999 RMK A01 T02030136  RH  065%=      5-min Rain = 0
KSW1 230145Z 11005KT 20/14 A2999 RMK A01 T02030135  RH  065%=      5-min Rain = 0
KSW1 230146Z 11005KT 20/14 A2999 RMK A01 T02030136  RH  065%=      5-min Rain = 0
KSW1 230147Z 12005KT 20/14 A2999 RMK A01 T02030136  RH  065%=      5-min Rain = 0
KSW1 230148Z 12006KT 20/14 A30 RMK A01 T02030136  RH  065%=      5-min Rain = 0
KSW1 230149Z 12006KT 20/14 A30 RMK A01 T02030135  RH  065%=      5-min Rain = 0
KSW1 230150Z 12006KT 20/14 A30 RMK A01 T02030136  RH  065%=      5-min Rain = 0
KSW1 230151Z 12007KT 20/14 A30 RMK A01 T02030137  RH  066%=      5-min Rain = 0
KSW1 230152Z 12006KT 20/14 A30 RMK A01 T02030135  RH  065%=      5-min Rain = 0
KSW1 230153Z 12006KT 20/14 A30 RMK A01 T02030135  RH  065%=      5-min Rain = 0
KSW1 230154Z 11006KT 20/14 A30 RMK A01 T02030135  RH  065%=      5-min Rain = 0
KSW1 230155Z 11006KT 20/14 A30 RMK A01 T02020135  RH  065%=      5-min Rain = 0
KSW1 230156Z 11006KT 20/14 A30 RMK A01 T02020135  RH  065%=      5-min Rain = 0
KSW1 230157Z 11005KT 20/14 A30 RMK A01 T02020135  RH  065%=      5-min Rain = 0
KSW1 230158Z 11006KT 20/14 A30 RMK A01 T02020135  RH  065%=      5-min Rain = 0
KSW1 230159Z 11006KT 20/14 A30 RMK A01 T02020135  RH  065%=      5-min Rain = 0
KSW1 230200Z 11005KT 20/14 A30 RMK A01 T02020135  RH  065%=      5-min Rain = 0
KSW1 230201Z 10005KT 20/14 A30 RMK A01 T02020136  RH  066%=      5-min Rain = 0
KSW1 230202Z 10006KT 20/14 A30 RMK A01 T02020136  RH  066%=      5-min Rain = 0
KSW1 230203Z 10006KT 20/14 A2999 RMK A01 T02010136  RH  066%=      5-min Rain = 0
KSW1 230204Z 09007KT 20/14 A2999 RMK A01 T02010136  RH  066%=      5-min Rain = 0
KSW1 230205Z 09007KT 20/14 A2999 RMK A01 T02010136  RH  066%=      5-min Rain = 0
KSW1 230206Z 09007KT 20/14 A2999 RMK A01 T02000136  RH  066%=      5-min Rain = 0
KSW1 230207Z 09006KT 20/14 A2999 RMK A01 T02000136  RH  067%=      5-min Rain = 0
KSW1 230208Z 09006KT 20/14 A2999 RMK A01 T02000137  RH  067%=      5-min Rain = 0
KSW1 230209Z 09005KT 20/14 A2999 RMK A01 T01990136  RH  067%=      5-min Rain = 0
KSW1 230210Z 10006KT 20/14 A2999 RMK A01 T01990136  RH  067%=      5-min Rain = 0
KSW1 230211Z 10005KT 20/14 A2999 RMK A01 T01990135  RH  066%=      5-min Rain = 0
KSW1 230212Z 10006KT 20/14 A2999 RMK A01 T01990135  RH  066%=      5-min Rain = 0
KSW1 230213Z 10005KT 20/14 A2999 RMK A01 T01990135  RH  066%=      5-min Rain = 0
KSW1 230214Z 10006KT 20/14 A2999 RMK A01 T01990135  RH  067%=      5-min Rain = 0
KSW1 230215Z 09005KT 20/14 A2999 RMK A01 T01990135  RH  067%=      5-min Rain = 0
KSW1 230216Z 10006KT 20/13 A2999 RMK A01 T01980134  RH  066%=      5-min Rain = 0
KSW1 230217Z 10006KT 20/13 A2999 RMK A01 T01980134  RH  066%=      5-min Rain = 0
KSW1 230218Z 10006KT 20/13 A30 RMK A01 T01990134  RH  066%=      5-min Rain = 0
KSW1 230219Z 10006KT 20/13 A30 RMK A01 T01990134  RH  066%=      5-min Rain = 0
KSW1 230220Z 10006KT 20/13 A30 RMK A01 T01990134  RH  066%=      5-min Rain = 0
KSW1 230221Z 10005KT 20/13 A30 RMK A01 T01990134  RH  066%=      5-min Rain = 0
KSW1 230222Z 10006KT 20/13 A30 RMK A01 T01980134  RH  066%=      5-min Rain = 0
KSW1 230223Z 09006KT 20/14 A30 RMK A01 T01980135  RH  067%=      5-min Rain = 0
KSW1 230224Z 09006KT 20/14 A30 RMK A01 T01980135  RH  067%=      5-min Rain = 0
KSW1 230225Z 09006KT 20/14 A30 RMK A01 T01970135  RH  067%=      5-min Rain = 0
KSW1 230226Z 09006KT 20/14 A30 RMK A01 T01970135  RH  068%=      5-min Rain = 0
KSW1 230227Z 09006KT 20/14 A30 RMK A01 T01960135  RH  068%=      5-min Rain = 0
KSW1 230228Z 09006KT 20/13 A30 RMK A01 T01960133  RH  067%=      5-min Rain = 0
KSW1 230229Z 09006KT 20/13 A30 RMK A01 T01970134  RH  067%=      5-min Rain = 0
KSW1 230230Z 09005KT 20/14 A30 RMK A01 T01970135  RH  067%=      5-min Rain = 0
KSW1 230231Z 09005KT 20/14 A30 RMK A01 T01970135  RH  067%=      5-min Rain = 0
KSW1 230232Z 09005KT 20/14 A30 RMK A01 T01970135  RH  067%=      5-min Rain = 0
KSW1 230233Z 09005KT 20/13 A30 RMK A01 T01970134  RH  067%=      5-min Rain = 0
KSW1 230234Z 09006KT 20/13 A30 RMK A01 T01970134  RH  067%=      5-min Rain = 0
KSW1 230235Z 09006KT 20/14 A30 RMK A01 T01970135  RH  067%=      5-min Rain = 0
KSW1 230236Z 09006KT 20/14 A30 RMK A01 T01970136  RH  068%=      5-min Rain = 0
KSW1 230237Z 09006KT 20/14 A30 RMK A01 T01970136  RH  068%=      5-min Rain = 0
KSW1 230238Z 09005KT 20/14 A30 RMK A01 T01960136  RH  068%=      5-min Rain = 0
KSW1 230239Z 09006KT 20/14 A30 RMK A01 T01960136  RH  068%=      5-min Rain = 0
KSW1 230240Z 10006KT 20/14 A30 RMK A01 T01960135  RH  068%=      5-min Rain = 0
KSW1 230241Z 09007KT 20/13 A30 RMK A01 T01960134  RH  067%=      5-min Rain = 0
KSW1 230242Z 09007KT 20/13 A30 RMK A01 T01970133  RH  067%=      5-min Rain = 0
KSW1 230243Z 09007KT 20/13 A30 RMK A01 T01980134  RH  067%=      5-min Rain = 0
KSW1 230244Z 09006KT 20/13 A30 RMK A01 T01980134  RH  066%=      5-min Rain = 0
KSW1 230245Z 09007KT 20/13 A30 RMK A01 T01980134  RH  067%=      5-min Rain = 0
KSW1 230246Z 09007KT 20/13 A30 RMK A01 T01980134  RH  066%=      5-min Rain = 0
KSW1 230247Z 10007KT 20/13 A30 RMK A01 T01980134  RH  066%=      5-min Rain = 0
KSW1 230248Z 09007KT 20/13 A30 RMK A01 T01980133  RH  066%=      5-min Rain = 0
KSW1 230249Z 09007KT 20/13 A30 RMK A01 T01980132  RH  066%=      5-min Rain = 0
KSW1 230250Z 09007KT 20/13 A30 RMK A01 T01980133  RH  066%=      5-min Rain = 0
KSW1 230251Z 09006KT 20/13 A30 RMK A01 T01980132  RH  066%=      5-min Rain = 0
KSW1 230252Z 10008KT 20/13 A30 RMK A01 T01980132  RH  066%=      5-min Rain = 0
KSW1 230253Z 09007KT 20/13 A30 RMK A01 T01980132  RH  065%=      5-min Rain = 0
KSW1 230254Z 09007KT 20/13 A30 RMK A01 T01980132  RH  066%=      5-min Rain = 0
KSW1 230255Z 09007KT 20/13 A30 RMK A01 T01980132  RH  066%=      5-min Rain = 0
KSW1 230256Z 09006KT 20/13 A30 RMK A01 T01980133  RH  066%=      5-min Rain = 0
KSW1 230257Z 09007KT 20/13 A30 RMK A01 T01980132  RH  066%=      5-min Rain = 0
KSW1 230258Z 09007KT 20/13 A30 RMK A01 T01980133  RH  066%=      5-min Rain = 0
KSW1 230259Z 09007KT 20/13 A30 RMK A01 T01980132  RH  066%=      5-min Rain = 0
KSW1 230300Z 09008KT 20/13 A30 RMK A01 T01980132  RH  065%=      5-min Rain = 0
KSW1 230301Z 09007KT 20/13 A30 RMK A01 T01980132  RH  065%=      5-min Rain = 0
KSW1 230302Z 09007KT 20/13 A30 RMK A01 T01990132  RH  065%=      5-min Rain = 0
KSW1 230303Z 08006KT 20/13 A30 RMK A01 T01980132  RH  065%=      5-min Rain = 0
KSW1 230304Z 08005KT 20/13 A30 RMK A01 T01980132  RH  066%=      5-min Rain = 0
KSW1 230305Z 08006KT 20/13 A30 RMK A01 T01980133  RH  066%=      5-min Rain = 0
KSW1 230306Z 08006KT 20/13 A30 RMK A01 T01980133  RH  066%=      5-min Rain = 0
KSW1 230307Z 09006KT 20/13 A30 RMK A01 T01980133  RH  066%=      5-min Rain = 0
KSW1 230308Z 08007KT 20/13 A30 RMK A01 T01970133  RH  067%=      5-min Rain = 0
KSW1 230309Z 08009KT 20/13 A30 RMK A01 T01970133  RH  066%=      5-min Rain = 0
KSW1 230310Z 09008KT 20/13 A30 RMK A01 T01970132  RH  066%=      5-min Rain = 0
KSW1 230311Z 09008KT 20/13 A30 RMK A01 T01970133  RH  066%=      5-min Rain = 0
KSW1 230312Z 09008KT 20/13 A30 RMK A01 T01980133  RH  066%=      5-min Rain = 0
KSW1 230313Z 09008KT 20/13 A30 RMK A01 T01980133  RH  066%=      5-min Rain = 0
KSW1 230314Z 09008KT 20/13 A30 RMK A01 T01980133  RH  066%=      5-min Rain = 0
KSW1 230315Z 09008KT 20/13 A30 RMK A01 T01980133  RH  066%=      5-min Rain = 0
KSW1 230316Z 09008KT 20/13 A30 RMK A01 T01980133  RH  066%=      5-min Rain = 0
KSW1 230317Z 09009KT 20/13 A30 RMK A01 T01980133  RH  066%=      5-min Rain = 0
KSW1 230318Z 09009KT 20/13 A30 RMK A01 T01980132  RH  066%=      5-min Rain = 0
KSW1 230319Z 09008KT 20/13 A30 RMK A01 T01990133  RH  066%=      5-min Rain = 0
KSW1 230320Z 08008KT 20/13 A30 RMK A01 T01990133  RH  066%=      5-min Rain = 0
KSW1 230321Z 09008KT 20/13 A30 RMK A01 T01990134  RH  066%=      5-min Rain = 0
KSW1 230322Z 09008KT 20/13 A3001 RMK A01 T01980133  RH  066%=      5-min Rain = 0
KSW1 230323Z 10007KT 20/13 A3001 RMK A01 T01980134  RH  066%=      5-min Rain = 0
KSW1 230324Z 09007KT 20/13 A3001 RMK A01 T01980134  RH  067%=      5-min Rain = 0
KSW1 230325Z 10007KT 20/13 A3001 RMK A01 T01980134  RH  067%=      5-min Rain = 0
KSW1 230326Z 09008KT 20/13 A3001 RMK A01 T01980133  RH  066%=      5-min Rain = 0
KSW1 230327Z 09008KT 20/13 A3001 RMK A01 T01980134  RH  066%=      5-min Rain = 0
KSW1 230328Z 10008KT 20/13 A3001 RMK A01 T01980134  RH  067%=      5-min Rain = 0
KSW1 230329Z 10008KT 20/13 A3001 RMK A01 T01970134  RH  067%=      5-min Rain = 0
KSW1 230330Z 10007KT 20/14 A3001 RMK A01 T01970135  RH  067%=      5-min Rain = 0
KSW1 230331Z 10009KT 20/14 A3001 RMK A01 T01970135  RH  067%=      5-min Rain = 0
KSW1 230332Z 10008KT 20/13 A3001 RMK A01 T01970134  RH  067%=      5-min Rain = 0
KSW1 230333Z 10009KT 20/13 A3001 RMK A01 T01970134  RH  067%=      5-min Rain = 0
KSW1 230334Z 10009KT 20/13 A3001 RMK A01 T01970134  RH  067%=      5-min Rain = 0
KSW1 230335Z 10007KT 20/14 A3001 RMK A01 T01970135  RH  067%=      5-min Rain = 0
KSW1 230336Z 10009KT 20/14 A3001 RMK A01 T01970135  RH  067%=      5-min Rain = 0
KSW1 230337Z 10009KT 20/14 A3001 RMK A01 T01970135  RH  067%=      5-min Rain = 0
KSW1 230338Z 10010KT 20/14 A30 RMK A01 T01970135  RH  067%=      5-min Rain = 0
KSW1 230339Z 10009KT 20/14 A3001 RMK A01 T01970135  RH  067%=      5-min Rain = 0
KSW1 230340Z 10010KT 20/14 A3001 RMK A01 T01980136  RH  067%=      5-min Rain = 0
KSW1 230341Z 11008KT 20/14 A3001 RMK A01 T01970136  RH  067%=      5-min Rain = 0
KSW1 230342Z 11010KT 20/14 A3001 RMK A01 T01980136  RH  068%=      5-min Rain = 0
KSW1 230343Z 11009KT 20/14 A3001 RMK A01 T01980136  RH  068%=      5-min Rain = 0
KSW1 230344Z 11009KT 20/14 A30 RMK A01 T01970136  RH  068%=      5-min Rain = 0
KSW1 230345Z 11009KT 20/14 A30 RMK A01 T01970136  RH  068%=      5-min Rain = 0
KSW1 230346Z 11008KT 20/14 A30 RMK A01 T01970137  RH  068%=      5-min Rain = 0
KSW1 230347Z 11009KT 20/14 A30 RMK A01 T01970137  RH  068%=      5-min Rain = 0
KSW1 230348Z 11008KT 20/14 A30 RMK A01 T01960137  RH  068%=      5-min Rain = 0
KSW1 230349Z 11008KT 20/14 A30 RMK A01 T01960137  RH  069%=      5-min Rain = 0
KSW1 230350Z 11008KT 20/14 A30 RMK A01 T01970138  RH  069%=      5-min Rain = 0
KSW1 230351Z 12010KT 20/14 A30 RMK A01 T01970138  RH  069%=      5-min Rain = 0
KSW1 230352Z 12009KT 20/14 A30 RMK A01 T01970137  RH  068%=      5-min Rain = 0
KSW1 230353Z 12008KT 20/14 A30 RMK A01 T01970138  RH  068%=      5-min Rain = 0
KSW1 230354Z 12009KT 20/14 A30 RMK A01 T01970138  RH  069%=      5-min Rain = 0
KSW1 230355Z 12009KT 20/14 A30 RMK A01 T01970138  RH  068%=      5-min Rain = 0
KSW1 230356Z 12009KT 20/14 A30 RMK A01 T01980138  RH  068%=      5-min Rain = 0
KSW1 230357Z 12008KT 20/14 A30 RMK A01 T01980138  RH  068%=      5-min Rain = 0
KSW1 230358Z 12008KT 20/14 A30 RMK A01 T01980138  RH  069%=      5-min Rain = 0
KSW1 230359Z 12009KT 20/14 A30 RMK A01 T01980138  RH  069%=      5-min Rain = 0
KSW1 230400Z 13008KT 20/14 A30 RMK A01 T01970138  RH  069%=      5-min Rain = 0
KSW1 230401Z 12009KT 20/14 A30 RMK A01 T01970139  RH  069%=      5-min Rain = 0
KSW1 230402Z 13009KT 20/14 A30 RMK A01 T01980139  RH  069%=      5-min Rain = 0
KSW1 230403Z 13009KT 20/14 A30 RMK A01 T01980139  RH  069%=      5-min Rain = 0
KSW1 230404Z 13008KT 20/14 A30 RMK A01 T01980139  RH  069%=      5-min Rain = 0
KSW1 230405Z 13009KT 20/14 A30 RMK A01 T01970139  RH  069%=      5-min Rain = 0
KSW1 230406Z 13009KT 20/14 A30 RMK A01 T01980140  RH  069%=      5-min Rain = 0
KSW1 230407Z 13007KT 20/14 A30 RMK A01 T01980140  RH  069%=      5-min Rain = 0
KSW1 230408Z 13010KT 20/14 A30 RMK A01 T01980140  RH  069%=      5-min Rain = 0
KSW1 230409Z 13009KT 20/14 A30 RMK A01 T01970139  RH  069%=      5-min Rain = 0
KSW1 230410Z 13009KT 20/14 A30 RMK A01 T01970140  RH  069%=      5-min Rain = 0
KSW1 230411Z 13008KT 20/14 A30 RMK A01 T01970140  RH  070%=      5-min Rain = 0
KSW1 230412Z 13008KT 20/14 A30 RMK A01 T01970140  RH  070%=      5-min Rain = 0
KSW1 230413Z 13008KT 20/14 A30 RMK A01 T01970140  RH  070%=      5-min Rain = 0
KSW1 230414Z 14008KT 20/14 A30 RMK A01 T01970140  RH  070%=      5-min Rain = 0
KSW1 230415Z 14009KT 20/14 A30 RMK A01 T01970140  RH  070%=      5-min Rain = 0
KSW1 230416Z 14008KT 20/14 A30 RMK A01 T01970140  RH  070%=      5-min Rain = 0
KSW1 230417Z 14007KT 20/14 A30 RMK A01 T01970140  RH  070%=      5-min Rain = 0
KSW1 230418Z 14009KT 20/14 A30 RMK A01 T01960140  RH  070%=      5-min Rain = 0
KSW1 230419Z 14008KT 20/14 A30 RMK A01 T01960140  RH  070%=      5-min Rain = 0
KSW1 230420Z 14008KT 20/14 A30 RMK A01 T01960140  RH  070%=      5-min Rain = 0
KSW1 230421Z 13008KT 20/14 A30 RMK A01 T01960140  RH  070%=      5-min Rain = 0
KSW1 230422Z 14008KT 20/14 A30 RMK A01 T01960140  RH  070%=      5-min Rain = 0
KSW1 230423Z 14008KT 20/14 A30 RMK A01 T01960140  RH  070%=      5-min Rain = 0
KSW1 230424Z 13006KT 20/14 A30 RMK A01 T01960140  RH  070%=      5-min Rain = 0
KSW1 230425Z 14009KT 20/14 A30 RMK A01 T01960141  RH  070%=      5-min Rain = 0
KSW1 230426Z 14007KT 20/14 A30 RMK A01 T01960141  RH  070%=      5-min Rain = 0
KSW1 230427Z 14009KT 20/14 A30 RMK A01 T01960141  RH  070%=      5-min Rain = 0
KSW1 230428Z 14009KT 20/14 A30 RMK A01 T01970141  RH  070%=      5-min Rain = 0
KSW1 230429Z 14008KT 20/14 A30 RMK A01 T01970140  RH  070%=      5-min Rain = 0
KSW1 230430Z 14010KT 20/14 A30 RMK A01 T01970140  RH  070%=      5-min Rain = 0
KSW1 230431Z 14010KT 20/14 A30 RMK A01 T01970140  RH  070%=      5-min Rain = 0
KSW1 230432Z 14008KT 20/14 A30 RMK A01 T01970141  RH  070%=      5-min Rain = 0
KSW1 230433Z 14009KT 20/14 A30 RMK A01 T01970141  RH  070%=      5-min Rain = 0
KSW1 230434Z 14009KT 20/14 A30 RMK A01 T01970141  RH  070%=      5-min Rain = 0
KSW1 230435Z 14008KT 20/14 A30 RMK A01 T01970141  RH  070%=      5-min Rain = 0
KSW1 230436Z 14008KT 20/14 A30 RMK A01 T01970141  RH  070%=      5-min Rain = 0
KSW1 230437Z 14008KT 20/14 A30 RMK A01 T01970141  RH  070%=      5-min Rain = 0
KSW1 230438Z 14009KT 20/14 A30 RMK A01 T01970141  RH  070%=      5-min Rain = 0
KSW1 230439Z 14010KT 20/14 A30 RMK A01 T01970141  RH  070%=      5-min Rain = 0
KSW1 230440Z 14010KT 20/14 A30 RMK A01 T01970141  RH  070%=      5-min Rain = 0
KSW1 230441Z 14009KT 20/14 A30 RMK A01 T01970141  RH  070%=      5-min Rain = 0
KSW1 230442Z 14010KT 20/14 A30 RMK A01 T01970141  RH  070%=      5-min Rain = 0
KSW1 230443Z 14009KT 20/14 A30 RMK A01 T01970142  RH  070%=      5-min Rain = 0
KSW1 230444Z 14008KT 20/14 A30 RMK A01 T01970141  RH  070%=      5-min Rain = 0
KSW1 230445Z 14009KT 20/14 A30 RMK A01 T01970141  RH  070%=      5-min Rain = 0
KSW1 230446Z 14008KT 20/14 A30 RMK A01 T01960141  RH  070%=      5-min Rain = 0
KSW1 230447Z 14008KT 20/14 A30 RMK A01 T01970141  RH  070%=      5-min Rain = 0
KSW1 230448Z 14009KT 20/14 A30 RMK A01 T01960142  RH  071%=      5-min Rain = 0
KSW1 230449Z 14008KT 20/14 A30 RMK A01 T01960142  RH  071%=      5-min Rain = 0
KSW1 230450Z 14008KT 20/14 A30 RMK A01 T01960142  RH  071%=      5-min Rain = 0
KSW1 230451Z 14009KT 20/14 A30 RMK A01 T01960142  RH  071%=      5-min Rain = 0
KSW1 230452Z 14008KT 20/14 A30 RMK A01 T01960141  RH  071%=      5-min Rain = 0
KSW1 230453Z 14008KT 20/14 A30 RMK A01 T01960142  RH  071%=      5-min Rain = 0
KSW1 230454Z 14007KT 20/14 A30 RMK A01 T01960142  RH  071%=      5-min Rain = 0
KSW1 230455Z 14009KT 20/14 A30 RMK A01 T01960142  RH  071%=      5-min Rain = 0
KSW1 230456Z 14008KT 20/14 A30 RMK A01 T01960142  RH  071%=      5-min Rain = 0
KSW1 230457Z 14008KT 20/14 A30 RMK A01 T01960142  RH  071%=      5-min Rain = 0
KSW1 230458Z 14009KT 20/14 A30 RMK A01 T01950142  RH  071%=      5-min Rain = 0
KSW1 230459Z 14009KT 20/14 A30 RMK A01 T01950142  RH  071%=      5-min Rain = 0

Page generated in 0.1561 seconds.